GFSFLT1_850_rhum_000.txt.gz
RH
84 71 71 53 45 37 24 35 36 93 48 49 30 28 49 76 83 86 86 63 30 24 22 22 22 20 16 16 17 10 9 10 10
96 75 76 63 54 45 25 20 22 28 29 32 29 27 57 74 82 87 80 24 24 23 24 24 24 23 21 19 22 18 14 12 10
92 87 96 90 70 59 34 19 18 21 27 26 27 23 55 70 80 81 70 24 24 24 25 25 25 26 26 25 25 25 24 23 23
92 90 90 90 85 63 38 26 18 19 24 25 23 22 39 51 64 57 40 23 24 25 26 26 27 28 29 29 29 29 30 30 31
82 76 87 87 84 66 46 25 22 19 21 22 20 21 23 36 34 60 53 37 25 26 26 26 27 29 30 31 32 33 33 33 34
79 60 51 60 63 54 42 21 18 20 23 22 20 20 22 33 34 52 41 29 26 27 27 27 28 28 30 31 33 34 35 36 38
93 66 53 45 40 35 30 18 16 21 25 24 22 19 21 26 46 49 43 30 27 27 28 28 28 29 29 31 32 34 35 36 38
70 53 39 45 28 29 28 19 15 22 28 30 34 22 20 32 32 42 37 33 26 27 28 28 28 29 30 30 31 33 34 36 37
44 34 36 38 31 42 31 31 17 22 25 30 33 37 32 36 33 29 28 30 26 26 26 26 27 27 27 28 28 30 31 33 34
50 49 55 52 41 40 56 50 38 45 29 26 27 26 30 29 28 26 22 22 24 24 24 25 25 26 26 26 26 27 28 28 30
48 50 46 45 46 42 43 44 37 31 37 35 33 29 26 23 23 22 22 21 21 22 23 24 24 25 25 25 26 27 29 31 32
46 50 50 46 43 39 39 39 54 58 51 46 52 48 39 30 25 22 22 21 21 22 23 24 24 25 25 25 25 26 28 31 35
52 53 51 53 51 50 49 45 46 49 50 53 59 63 53 44 39 35 27 25 24 23 22 23 24 25 26 26 26 28 30 33 35
38 43 47 55 61 60 55 56 58 60 63 68 67 58 59 61 59 52 46 39 33 29 25 25 25 26 27 28 29 30 31 34 37
36 37 44 58 62 66 66 65 68 68 70 76 78 74 69 64 63 61 64 63 58 51 43 33 27 27 29 30 28 26 30 35 40
34 40 48 62 69 70 73 75 75 75 80 86 87 83 76 76 76 74 70 60 60 58 54 45 40 36 34 34 31 31 32 31 34
50 51 52 63 74 78 82 88 86 83 87 92 94 93 86 80 72 66 60 54 63 69 73 70 62 52 42 39 38 45 52 54 58
78 79 85 84 89 85 88 92 94 90 90 96 93 90 83 72 65 62 60 61 73 76 69 69 65 54 45 61 65 64 68 66 66
57 63 75 88 96 98 97 99 98 98 92 90 91 92 88 80 78 73 71 67 68 67 57 54 53 57 61 68 66 70 70 68 67
66 65 75 78 92 100 100 100 100 100 98 90 90 92 94 95 98 94 87 82 77 77 77 75 71 70 64 70 69 66 65 64 66

GFSFLT1_850_rhum_003.txt.gz
RH
91 63 56 44 35 24 21 34 26 56 70 71 27 25 43 61 77 94 72 22 22 22 22 23 21 18 17 17 16 14 11 9 10
98 74 57 48 34 23 16 18 24 22 28 28 25 27 46 55 76 75 62 18 22 23 23 24 24 23 22 22 22 20 18 16 15
80 71 61 57 50 41 32 20 18 21 23 24 25 26 48 56 74 73 58 23 22 23 24 25 26 27 27 26 26 26 26 26 26
39 66 64 83 75 69 48 32 20 16 20 22 24 21 46 49 71 71 51 25 23 23 24 26 27 28 29 30 30 30 30 30 31
43 55 84 86 82 79 62 39 24 19 18 21 22 21 32 39 43 39 43 37 24 24 24 26 27 28 30 31 32 33 33 34 35
32 54 48 49 60 62 54 41 23 20 19 20 20 19 19 27 36 36 41 42 29 26 25 26 28 29 30 31 31 32 33 36 37
45 42 42 35 33 37 46 38 22 15 18 21 20 19 20 20 25 24 34 38 29 26 26 27 28 29 29 30 30 31 31 32 33
29 32 31 34 40 32 29 28 20 13 16 21 22 20 19 19 23 24 28 33 33 26 26 26 27 28 28 29 30 30 30 30 31
30 32 32 31 36 27 24 24 20 12 14 21 22 22 21 18 21 24 25 26 28 28 25 25 26 26 26 26 26 27 29 29 29
39 40 39 33 29 27 24 20 20 18 14 22 25 25 24 23 20 23 25 23 23 25 25 24 25 25 25 25 25 25 26 27 28
39 41 41 40 38 35 32 27 24 24 22 17 31 29 27 26 23 23 23 22 22 22 22 22 23 24 24 25 24 25 25 25 26
42 44 44 41 45 45 42 38 34 34 35 28 24 27 33 36 32 30 25 23 22 22 22 22 22 23 24 24 25 26 25 25 26
42 42 36 40 50 52 51 49 46 44 43 37 37 40 42 41 44 40 34 32 28 24 22 22 23 23 24 25 27 29 26 27 28
34 36 38 47 55 58 58 57 57 55 57 55 53 50 48 44 46 43 41 40 39 34 29 30 29 29 29 29 30 39 35 32 32
42 46 49 61 70 68 73 72 69 69 68 70 68 63 60 60 60 58 56 53 53 50 49 47 43 37 36 35 34 32 33 34 36
62 66 63 60 68 68 70 76 81 78 80 87 84 80 73 73 71 70 66 65 64 64 62 59 53 51 47 46 46 44 40 36 31
69 70 67 66 74 79 79 81 82 84 90 90 93 95 87 74 64 60 58 62 65 66 63 64 62 60 66 66 62 51 44 43 38
78 77 78 83 89 90 92 95 96 97 96 97 97 95 84 73 53 53 57 58 56 54 55 55 56 64 69 54 53 52 44 44 49
80 77 76 79 84 91 94 100 100 100 98 98 100 98 95 86 84 68 73 74 70 68 64 63 65 66 57 49 46 46 58 67 69
75 75 76 79 82 84 89 94 92 96 100 96 96 100 99 98 100 93 78 86 73 75 73 70 70 68 69 69 73 63 58 61 68

GFSFLT1_850_rhum_006.txt.gz
RH
84 64 50 40 32 29 24 37 34 28 34 73 39 32 47 59 82 80 78 59 20 22 22 21 20 19 18 18 16 13 12 10 10
73 65 60 44 44 31 19 18 23 19 19 22 24 28 46 52 61 69 68 40 25 25 24 24 24 23 22 22 21 20 18 16 14
65 60 55 59 61 45 30 22 18 18 20 19 22 26 45 52 51 58 56 32 23 25 25 25 26 26 26 26 26 25 24 24 24
45 54 77 92 73 62 53 39 26 17 17 20 22 24 37 47 44 40 40 40 24 24 24 24 26 26 28 28 29 28 28 28 29
36 57 59 51 81 68 67 53 36 24 18 17 21 24 25 38 45 40 34 29 24 25 25 25 25 27 28 30 31 31 31 31 32
26 32 43 39 32 36 42 45 35 23 18 16 19 23 21 30 38 35 30 33 37 30 25 25 25 25 26 28 30 31 32 33 33
21 34 33 23 20 20 25 25 26 23 15 16 18 20 22 21 23 31 28 30 38 39 26 26 26 26 26 26 27 28 30 32 33
25 29 27 25 24 24 25 21 23 24 17 13 18 21 21 20 20 24 26 26 32 38 30 25 26 26 26 26 26 27 27 28 29
30 31 33 33 32 30 29 24 24 24 19 13 16 20 22 21 19 20 26 28 28 33 32 28 25 25 25 25 25 25 26 26 27
34 34 37 38 39 37 36 32 28 25 23 18 14 18 23 25 25 19 21 27 27 30 32 32 29 25 24 24 24 24 24 25 26
35 36 38 39 41 42 42 42 40 36 33 30 26 22 26 27 27 28 26 24 27 29 28 27 30 36 37 35 27 25 25 25 26
38 38 38 42 51 55 55 54 56 54 49 42 37 31 25 27 33 30 28 27 28 28 28 28 29 30 38 57 59 57 40 30 29
51 52 52 53 56 60 62 61 60 61 60 57 54 51 47 43 40 39 43 43 40 36 34 30 28 28 29 46 67 78 80 76 53
60 59 57 57 58 63 68 69 73 70 68 69 68 66 64 60 57 53 51 50 49 46 42 42 41 37 35 37 55 69 75 77 74
69 71 71 72 73 71 72 74 76 78 81 82 81 80 78 74 70 67 66 64 62 60 59 54 50 49 50 52 50 45 45 53 60
79 80 81 82 85 84 86 88 89 88 90 94 92 89 84 82 78 78 77 72 73 72 70 67 64 62 63 63 62 59 58 60 59
80 82 83 84 85 84 87 91 95 97 97 99 100 99 91 88 82 76 61 45 52 54 55 61 60 64 66 63 64 65 64 69 74
83 87 87 86 85 84 83 86 90 93 90 92 100 99 91 81 79 77 72 72 70 66 63 62 60 58 58 54 53 56 61 61 68
76 80 80 80 81 83 85 86 86 89 85 86 92 98 100 98 90 80 87 89 88 86 80 71 67 72 74 68 64 61 60 56 50
81 81 84 82 82 79 81 88 93 92 85 84 95 96 99 100 100 98 86 82 85 88 91 88 87 80 79 78 76 74 72 70 71

GFSFLT1_850_rhum_009.txt.gz
RH
99 83 63 51 45 34 29 39 38 35 63 60 83 41 44 55 59 57 60 58 44 19 19 20 20 20 21 19 18 16 14 12 12
96 68 71 59 51 42 27 19 24 34 22 22 27 34 35 41 45 57 56 43 23 22 21 22 23 23 22 21 21 20 19 17 14
92 78 74 66 56 48 38 29 22 19 18 19 21 24 34 50 54 60 63 51 31 22 22 23 24 24 24 24 24 24 23 23 22
74 64 64 64 47 41 42 37 31 24 18 16 19 25 30 44 56 61 58 47 38 23 22 24 25 25 26 26 26 26 26 26 26
41 34 38 35 30 33 46 42 38 37 28 20 18 23 26 32 48 50 49 46 39 40 27 24 25 26 26 27 28 28 28 29 29
24 22 28 31 26 28 35 40 41 42 38 23 20 20 25 26 31 42 43 42 34 31 49 26 25 25 26 26 26 27 28 29 30
25 22 27 27 25 25 26 30 36 36 33 27 17 18 21 25 23 30 39 37 34 35 53 38 27 26 26 26 26 26 27 28 28
26 26 29 31 33 32 33 32 32 27 28 28 20 15 20 23 24 22 22 26 32 33 51 74 38 27 27 26 26 26 26 27 28
30 31 33 36 40 42 44 43 44 41 35 29 24 15 15 20 21 20 21 23 29 31 35 87 87 45 28 28 27 26 26 26 27
39 41 44 46 48 50 53 53 52 50 46 39 33 28 17 16 22 23 24 22 25 31 37 85 93 94 90 61 36 28 27 26 26
41 44 47 47 53 56 59 62 63 61 60 55 51 45 41 33 26 25 27 31 30 24 32 40 86 91 93 94 91 80 52 33 30
41 43 46 49 54 58 60 61 64 64 65 62 62 63 60 55 48 40 33 31 33 35 37 39 39 45 74 88 90 91 88 86 83
48 51 52 56 60 62 62 64 66 68 69 68 68 70 71 69 68 64 58 53 47 41 41 41 39 37 40 70 76 84 89 87 82
65 67 70 74 79 82 83 83 83 82 80 80 80 80 79 79 79 76 73 70 68 65 59 54 53 56 55 52 61 62 65 70 78
74 80 84 88 90 90 91 95 96 96 95 96 93 92 91 87 82 80 82 79 78 77 73 71 68 67 66 66 65 62 58 54 56
84 90 92 89 92 92 95 96 97 96 97 100 91 88 86 81 78 80 77 74 71 72 59 61 71 73 74 71 70 70 68 67 66
91 90 90 92 94 92 90 92 97 98 90 91 98 99 88 81 79 76 77 76 77 72 67 73 70 58 55 54 54 57 64 70 74
79 81 83 85 86 85 86 89 92 85 83 85 98 98 93 85 78 71 72 74 75 77 74 74 74 80 78 74 67 63 60 60 62
71 71 71 73 76 77 80 80 87 96 98 96 99 100 100 99 96 92 86 79 83 78 73 66 67 67 73 80 84 81 67 62 65
49 49 50 50 52 56 60 62 67 92 100 100 100 100 99 99 100 98 92 94 97 94 89 86 81 79 70 67 67 68 71 66 56

GFSFLT1_850_rhum_012.txt.gz
RH
94 95 71 61 51 43 37 44 43 43 48 62 80 76 51 36 46 50 67 72 64 55 22 20 20 20 19 19 19 17 16 14 13
97 75 72 54 44 43 39 34 30 31 37 38 28 44 48 34 40 44 53 66 57 49 25 21 21 21 21 20 21 20 19 18 15
98 74 51 49 55 52 58 51 43 31 26 21 20 25 33 28 37 48 48 61 56 91 51 24 23 22 22 23 23 23 23 22 21
56 68 56 49 59 96 100 94 68 56 41 29 18 20 29 27 34 44 42 52 64 70 93 29 22 23 24 25 25 25 25 25 25
35 35 34 40 57 97 82 82 68 56 54 46 30 20 22 28 26 34 43 47 54 51 92 61 25 24 24 26 26 26 27 27 27
27 25 23 29 40 43 51 94 59 53 47 42 41 25 20 22 26 28 36 46 49 50 81 92 78 28 26 26 26 28 28 28 29
26 27 31 38 42 45 46 51 51 51 44 37 35 33 21 21 22 27 28 38 52 54 51 89 91 78 31 29 29 28 28 29 29
28 33 40 40 46 51 56 56 54 51 48 42 37 34 31 18 18 22 27 29 34 40 41 58 91 95 88 52 43 40 31 29 29
29 35 40 42 46 49 54 56 58 58 56 54 51 44 36 31 18 15 22 26 26 25 26 38 86 95 99 96 84 53 39 35 32
35 37 42 46 52 54 57 58 58 58 58 59 58 56 54 48 40 31 19 21 28 31 27 26 44 88 90 97 90 86 62 49 48
37 41 46 49 52 54 57 56 58 58 60 60 63 62 63 61 60 57 51 42 28 28 32 35 30 42 87 90 94 89 80 74 71
49 51 54 58 66 72 72 71 74 74 75 74 74 74 72 68 68 68 66 64 60 50 37 34 36 36 45 79 85 88 90 89 84
63 66 66 73 81 87 89 91 91 91 92 93 92 92 90 85 81 81 80 76 72 70 68 62 54 47 43 56 78 81 81 82 82
76 79 79 85 90 93 96 97 98 97 97 98 98 99 97 95 92 85 81 80 81 77 73 73 74 71 68 64 64 68 71 70 73
88 90 92 98 100 98 97 94 92 92 95 95 91 89 87 82 77 72 70 68 68 69 72 72 71 72 78 80 80 75 70 68 67
84 88 91 90 88 87 90 91 90 91 91 100 80 76 72 72 70 66 64 64 66 69 68 70 72 65 60 62 56 60 70 75 78
74 75 78 79 80 81 83 87 95 99 94 100 100 99 95 92 86 84 82 77 76 80 77 78 76 75 71 71 66 70 56 55 58
66 66 66 64 63 64 67 67 68 95 98 100 100 99 96 98 94 90 81 81 85 80 80 82 84 83 82 80 78 72 72 72 71
52 52 50 48 46 43 42 42 45 53 64 74 87 98 99 99 97 96 99 96 83 79 82 83 81 85 87 88 86 81 76 78 82
36 37 38 39 39 39 37 35 33 33 35 39 46 52 57 71 96 96 88 85 77 76 85 85 81 88 88 86 83 82 86 82 83

GFSFLT1_850_rhum_015.txt.gz
RH
86 49 50 51 49 45 40 40 44 54 71 73 96 99 99 75 43 43 50 61 67 60 95 68 41 29 28 24 22 19 17 15 14
85 60 57 58 52 49 46 44 37 40 52 56 72 75 90 94 45 41 41 46 66 66 92 46 26 26 24 23 21 20 19 18 16
90 72 70 57 55 65 75 80 62 53 43 42 94 93 59 91 36 38 46 48 59 56 95 83 34 27 26 26 23 22 22 22 21
75 70 68 71 72 99 98 99 99 99 89 59 47 38 36 42 35 32 43 49 55 66 72 96 95 74 30 26 25 25 25 25 24
57 59 65 75 55 70 98 100 99 98 97 93 62 57 42 32 27 30 31 42 51 59 66 88 92 91 57 32 27 28 27 27 28
44 41 41 43 44 48 64 89 90 95 96 59 54 51 43 36 24 22 24 30 39 47 49 93 94 97 92 59 42 31 28 29 30
33 32 35 37 41 44 48 52 55 57 55 50 50 44 38 33 27 17 18 23 26 29 38 49 92 95 92 94 56 48 38 31 31
29 32 36 42 46 47 51 54 57 58 58 56 55 53 51 44 35 27 17 17 23 26 26 33 46 79 95 98 95 92 88 69 41
36 39 42 45 49 52 54 55 57 58 59 59 59 60 60 57 55 52 44 33 17 19 25 25 25 29 74 91 86 87 79 60 62
42 44 47 50 51 55 58 63 65 66 66 67 68 68 69 67 66 62 59 61 54 42 24 21 24 24 27 59 74 79 82 80 68
50 51 54 58 66 72 77 82 84 85 86 86 87 86 88 86 82 74 67 65 68 67 63 53 34 28 32 52 66 76 66 80 87
66 66 69 75 83 87 90 92 94 94 95 95 95 95 95 92 91 88 83 76 69 71 73 74 72 64 47 48 58 58 54 68 78
80 81 80 82 86 90 91 92 91 89 90 90 89 94 97 89 85 83 78 74 71 68 67 71 75 78 77 73 74 65 57 52 57
78 78 78 83 85 86 89 89 91 87 83 85 84 86 80 80 81 77 72 69 66 63 64 63 66 72 77 81 82 81 74 68 62
75 81 86 89 86 83 83 82 81 85 87 95 90 85 80 76 70 67 68 68 69 68 69 70 71 70 72 76 80 83 86 86 85
75 73 72 73 73 74 75 75 75 74 77 98 96 96 94 87 84 81 84 77 77 75 78 79 79 75 73 75 77 70 73 74 69
57 55 53 50 48 46 45 44 43 42 45 88 94 94 87 85 92 87 82 90 77 88 92 85 82 81 84 82 82 80 81 82 74
50 49 46 42 40 39 39 38 38 39 36 36 73 90 82 89 71 82 78 79 90 89 77 83 85 88 90 87 89 86 85 85 86
34 34 35 36 36 37 37 38 38 38 39 37 39 41 50 81 75 57 70 74 82 85 78 75 66 63 67 66 70 70 66 83 92
38 38 38 37 35 33 30 28 26 27 31 38 48 47 53 73 90 91 76 84 81 83 79 59 79 94 95 65 65 70 73 82 94

GFSFLT1_850_rhum_018.txt.gz
RH
93 72 59 58 55 52 39 34 49 98 80 75 95 96 97 99 93 80 81 61 93 58 66 90 61 86 65 45 30 25 21 18 17
93 85 79 72 60 59 49 49 46 37 41 43 54 89 84 79 95 89 76 82 85 66 83 96 70 36 52 27 30 23 22 20 18
91 91 89 79 75 77 98 97 93 83 77 59 56 96 99 98 89 92 88 51 45 54 91 92 94 70 44 32 31 26 24 22 21
73 81 80 83 95 92 90 95 94 95 96 98 95 87 64 72 90 88 90 69 43 50 70 76 93 96 90 88 75 43 30 26 24
49 53 56 47 48 43 48 69 91 88 89 87 85 52 44 51 86 85 82 30 30 41 47 59 82 90 96 91 86 53 33 32 27
56 48 43 39 37 38 41 47 54 56 61 58 52 50 52 79 73 65 41 17 21 25 32 39 71 90 86 92 87 81 57 34 30
44 41 40 41 41 43 45 48 51 55 80 90 78 74 89 86 75 58 35 25 15 16 21 24 30 51 85 82 92 89 84 88 44
48 41 40 42 45 48 53 56 60 77 82 91 91 93 94 90 84 69 56 54 41 23 15 18 22 23 31 66 83 85 87 93 85
50 49 50 49 55 63 61 72 83 84 87 91 91 93 93 92 89 79 58 58 62 59 48 27 18 22 25 28 57 79 81 83 81
56 62 67 63 76 80 85 85 94 94 96 95 94 90 89 88 91 86 73 62 61 63 64 63 57 41 24 27 28 30 62 80 82
73 74 77 76 80 83 85 86 85 84 89 88 87 92 97 96 96 95 90 78 69 68 68 65 64 65 64 55 44 39 43 58 70
76 76 75 81 89 79 83 88 95 98 98 98 97 94 93 94 94 97 97 95 80 68 68 72 74 74 74 71 69 64 51 34 33
73 75 81 87 80 87 92 98 98 99 100 100 99 100 98 97 96 97 94 94 92 80 70 67 67 71 76 80 96 98 87 74 64
76 80 83 87 93 93 92 86 90 87 96 94 88 94 87 94 94 94 95 94 83 77 73 74 72 70 70 73 76 91 96 97 94
79 78 73 68 67 73 67 72 80 86 87 90 88 85 83 84 85 86 86 89 98 97 97 96 88 73 75 76 81 80 80 82 90
52 47 45 44 45 44 43 52 52 58 64 60 60 65 69 74 63 77 88 72 75 78 86 85 94 96 99 85 75 76 84 86 86
39 35 32 31 33 34 35 37 39 56 60 61 64 52 52 47 62 52 51 58 54 66 77 80 82 88 89 95 97 80 81 85 90
34 37 38 38 37 35 33 37 46 63 56 59 62 58 58 65 56 52 52 51 60 58 57 67 72 69 72 80 84 87 72 58 62
41 41 38 34 28 22 17 15 15 48 54 53 52 63 65 64 63 50 58 56 64 62 61 61 63 64 65 71 83 91 86 69 69
42 36 30 23 15 8 4 4 6 41 49 52 58 65 65 63 66 72 49 48 47 49 52 58 60 62 69 69 71 90 99 97 100

GFSFLT1_850_rhum_021.txt.gz
RH
89 89 86 74 64 56 49 33 35 37 34 53 70 80 91 96 94 91 81 71 62 94 64 76 78 81 83 83 70 35 26 23 19
88 92 83 78 67 54 52 45 55 54 45 38 34 48 70 75 76 70 87 79 84 93 63 90 98 70 38 42 38 44 31 22 20
93 92 86 78 63 66 45 87 90 91 81 73 56 51 45 35 59 80 75 88 48 32 35 75 85 96 81 37 31 25 25 22 22
87 65 63 49 49 59 40 50 81 76 81 76 50 45 38 38 37 58 80 80 59 26 31 39 94 91 98 89 56 39 26 26 24
52 43 39 36 34 34 35 42 46 56 55 57 54 46 45 40 62 74 70 70 34 19 23 29 39 97 91 96 93 73 41 28 28
89 84 39 35 37 40 44 46 48 50 49 56 71 70 58 69 82 71 67 57 35 18 16 20 24 31 73 79 83 84 72 56 42
74 45 33 34 38 42 48 51 53 54 62 88 83 85 86 86 82 80 71 53 50 42 28 15 16 22 26 43 72 77 87 89 81
77 81 71 50 60 52 63 70 78 86 88 86 84 83 82 83 84 81 78 58 52 55 55 50 34 16 16 21 26 45 68 78 88
79 78 81 84 84 87 89 91 88 90 90 88 87 86 85 86 86 86 86 84 75 66 68 62 60 56 44 22 18 21 26 47 71
79 82 84 86 89 89 90 91 91 91 89 89 88 88 90 91 92 92 90 92 92 90 83 83 81 71 64 61 53 36 22 22 26
94 93 94 94 93 93 93 93 95 95 93 90 89 88 87 86 85 86 88 87 88 89 86 78 78 82 88 91 80 69 65 53 30
92 95 98 97 95 96 97 98 98 97 96 94 93 91 86 84 84 86 88 89 90 90 91 90 79 76 76 98 100 99 98 92 80
98 100 98 99 98 98 98 96 93 89 88 86 84 80 85 84 82 78 84 85 87 86 90 92 92 86 79 78 85 95 99 100 99
97 99 97 91 90 85 82 73 73 72 66 67 67 68 71 69 64 72 78 79 80 86 85 85 87 83 82 81 79 79 80 82 90
70 60 47 41 51 51 42 48 47 46 54 54 55 50 52 47 63 72 64 74 79 71 66 72 77 84 87 81 87 90 87 84 83
36 31 33 34 38 49 42 44 44 44 54 57 56 51 46 49 45 58 71 71 58 53 54 53 62 72 84 82 67 80 82 82 84
35 38 39 39 38 38 36 38 41 45 46 52 51 48 46 46 42 32 36 41 46 54 56 61 60 55 54 65 72 72 76 76 85
41 40 35 32 30 30 25 25 23 38 32 46 50 48 46 56 48 45 44 48 43 48 59 58 46 52 46 57 63 64 67 80 92
36 35 34 30 26 18 10 14 12 36 46 36 40 40 52 60 58 43 42 41 36 24 35 36 36 44 54 61 66 67 72 83 85
39 36 32 26 17 9 7 8 9 16 41 30 38 47 54 56 50 47 40 41 36 36 41 46 46 42 54 63 76 79 73 73 92

GFSFLT1_850_rhum_024.txt.gz
RH
90 92 85 72 64 46 37 30 27 37 42 32 38 63 55 44 29 38 82 90 54 81 88 76 52 53 71 85 85 68 42 23 20
89 94 85 79 66 44 27 27 34 35 30 33 32 27 22 21 19 20 36 68 84 64 89 46 48 53 83 46 60 47 27 25 19
95 87 74 53 37 29 28 30 37 43 40 37 40 30 28 30 26 23 28 55 66 56 28 25 30 84 73 86 29 25 24 25 23
83 68 36 29 25 25 29 34 37 45 49 54 49 46 42 37 33 27 27 28 67 66 26 22 25 33 47 94 87 49 28 26 29
45 39 31 30 30 33 36 39 41 43 43 44 48 60 56 50 43 37 38 41 36 35 19 14 16 22 34 56 72 84 84 52 38
82 71 43 32 34 37 40 42 44 45 46 53 70 78 65 62 60 61 66 67 58 52 43 32 17 14 18 24 56 73 82 88 90
82 73 45 38 39 42 45 48 51 56 58 59 69 76 74 79 80 80 79 74 71 66 59 56 55 45 24 16 21 38 67 79 83
70 71 67 60 50 50 51 51 57 67 68 74 78 82 83 84 83 84 85 85 85 85 85 81 75 66 62 56 36 19 23 51 63
73 77 79 80 80 71 78 83 85 90 91 92 90 90 89 89 89 88 88 89 87 88 93 94 91 89 91 80 72 65 51 26 37
81 81 83 83 86 90 91 93 94 94 93 90 91 90 87 85 86 86 87 89 90 91 89 89 91 93 100 99 99 96 88 84 69
87 82 94 95 97 94 94 94 91 91 90 90 84 81 77 78 84 83 79 79 81 82 84 90 88 88 94 99 90 96 99 99 95
96 96 96 94 95 91 90 90 90 85 84 84 74 84 77 56 54 57 58 67 77 88 88 82 81 80 78 92 98 90 89 92 98
95 97 96 94 90 87 83 82 75 61 61 57 62 62 64 59 55 48 54 70 74 75 79 81 86 84 81 80 84 80 68 75 81
98 96 76 64 67 60 47 36 40 39 38 40 45 43 44 32 37 51 61 74 78 74 72 69 56 57 64 78 89 95 93 79 71
59 43 33 34 37 39 39 38 36 35 35 32 30 26 24 41 52 49 58 55 53 62 61 65 44 51 59 66 77 87 96 92 82
31 36 38 38 36 33 32 30 28 26 21 20 24 19 34 29 32 49 29 22 18 21 31 48 53 58 62 63 61 53 56 66 72
38 39 35 33 32 31 29 22 19 14 14 38 27 34 33 41 16 20 15 36 43 44 25 29 30 26 24 24 15 20 28 36 76
38 38 38 37 34 30 20 15 11 11 10 14 32 48 47 39 35 29 33 43 19 28 27 18 17 21 34 41 41 41 52 68 85
41 40 38 35 31 24 16 11 9 9 10 10 10 14 29 56 57 47 30 29 23 23 33 34 46 50 44 34 42 62 74 74 83
44 42 38 34 29 19 12 10 9 9 11 14 17 15 18 20 51 61 48 48 42 43 44 54 45 56 38 53 57 52 56 54 68

GFSFLT1_850_rhum_027.txt.gz
RH
89 90 70 50 37 23 21 21 19 20 26 27 21 21 30 25 27 27 37 53 52 56 74 58 62 44 56 77 91 84 85 70 34
85 91 66 57 34 24 20 22 25 28 31 28 26 27 26 25 24 24 25 45 67 83 88 93 72 45 44 53 59 67 76 42 31
88 88 73 41 31 29 30 30 33 35 35 36 35 36 35 33 32 31 26 28 32 70 96 72 35 39 70 98 90 52 29 33 27
74 73 39 31 32 33 34 37 39 41 43 42 42 44 48 50 51 43 39 41 40 42 95 58 26 23 27 75 80 97 71 42 30
41 39 38 38 36 38 40 42 44 45 46 48 52 65 62 62 61 62 62 60 58 58 85 71 48 28 18 24 63 75 88 88 86
69 54 48 41 38 38 42 44 49 52 56 58 65 70 69 71 74 76 79 78 77 75 74 72 70 66 60 44 37 40 86 87 86
75 69 58 55 53 49 51 56 58 61 65 70 78 83 85 85 84 83 83 83 85 89 88 86 85 85 85 76 67 68 62 87 87
69 67 70 70 68 64 64 64 70 78 84 89 91 90 90 89 89 90 91 90 90 92 89 90 90 88 89 95 99 96 95 84 67
79 79 79 76 77 80 86 86 90 93 95 94 87 82 84 84 85 79 82 80 82 88 89 89 88 88 88 86 90 98 97 98 87
80 83 82 85 90 94 92 90 90 89 89 91 94 91 87 82 78 78 78 82 84 81 82 90 84 92 88 88 86 82 90 95 98
87 86 86 92 90 91 88 90 89 88 90 84 73 56 45 50 49 46 52 63 58 60 76 75 95 95 91 86 76 70 78 79 88
94 97 96 94 90 89 84 84 84 72 45 44 39 37 40 40 41 43 47 47 57 71 74 81 80 94 93 94 92 84 76 77 70
98 96 92 91 89 85 75 53 34 35 37 36 34 34 33 31 38 32 38 52 63 74 79 73 66 67 59 57 68 83 85 93 95
96 94 86 66 44 34 35 37 35 31 28 25 24 23 22 22 29 44 53 53 58 59 57 49 49 49 49 50 51 62 74 78 85
66 37 33 37 36 34 32 30 29 26 23 22 22 20 21 28 37 36 36 37 20 19 21 29 29 30 30 46 46 42 46 48 48
36 37 36 35 35 34 33 30 28 25 20 19 19 18 18 21 29 25 20 15 15 23 20 18 14 15 19 18 16 11 15 24 58
38 38 38 36 36 34 30 25 20 17 12 17 18 24 21 32 14 21 14 16 26 21 13 7 6 8 8 17 28 29 25 28 66
41 42 42 40 38 33 26 19 14 12 12 10 23 34 41 22 25 15 27 39 22 19 11 9 10 19 42 45 46 31 21 77 83
45 45 45 43 36 28 20 15 12 10 10 10 13 22 28 46 53 38 17 25 25 16 18 22 29 54 33 39 51 43 61 70 76
48 48 44 37 31 23 16 12 10 10 11 14 15 16 19 23 52 51 42 39 34 25 37 30 51 46 54 35 27 44 55 64 68

GFSFLT1_850_rhum_030.txt.gz
RH
89 74 61 57 44 33 26 27 25 27 32 32 25 25 26 30 28 26 28 33 52 65 91 83 83 67 55 60 84 87 87 83 90
90 87 66 46 29 27 26 27 30 34 40 43 39 38 38 38 36 36 34 34 45 54 94 95 97 97 86 78 90 92 89 91 94
90 86 72 36 29 28 31 34 37 38 46 43 46 48 50 55 60 58 48 41 37 47 80 95 96 83 92 98 98 99 97 94 94
71 70 46 33 32 35 38 40 42 43 45 47 51 54 64 66 67 67 66 64 63 61 59 92 94 91 72 68 88 100 98 98 98
47 49 45 42 38 38 41 44 46 49 54 57 59 66 65 67 68 71 75 76 77 78 75 76 91 83 74 69 57 40 85 91 86
64 59 57 47 46 46 48 52 56 59 63 68 74 81 84 85 83 83 83 85 85 84 85 90 87 87 86 87 84 80 69 52 81
59 62 60 62 64 62 60 62 65 68 76 82 88 88 88 87 84 80 81 81 82 84 89 90 89 88 87 86 87 90 98 93 87
67 63 64 70 72 74 77 82 86 89 90 90 86 87 84 81 77 79 81 76 78 88 89 86 86 88 90 88 84 85 85 92 96
80 79 80 82 86 90 93 91 92 92 91 89 86 90 88 94 89 85 84 86 83 86 79 79 78 80 81 82 89 90 90 88 92
83 83 86 89 92 93 91 88 87 86 83 83 88 89 83 73 59 55 56 57 71 82 81 75 79 83 84 90 88 83 83 78 68
91 92 94 88 91 90 85 84 83 82 77 79 66 44 37 36 40 43 42 41 39 41 47 68 73 74 86 88 83 91 96 91 88
96 96 94 90 89 89 86 83 82 78 44 35 35 34 33 34 35 36 37 39 37 48 64 71 75 73 72 73 72 77 78 81 79
94 95 91 88 86 84 79 43 35 35 33 29 26 24 23 22 22 23 30 48 58 60 57 59 63 58 51 47 50 56 59 56 62
96 93 91 75 46 35 36 34 32 31 30 28 26 24 21 22 36 48 54 43 37 29 23 26 32 36 35 32 35 37 42 46 49
86 49 36 37 36 35 34 32 30 27 25 24 23 22 19 26 18 22 26 23 22 16 18 31 24 19 12 9 14 20 26 37 49
36 37 37 36 36 36 35 32 28 24 22 21 21 18 18 18 28 22 17 11 9 15 28 16 7 5 4 4 4 5 9 23 45
39 39 40 42 43 40 34 29 24 19 14 13 19 19 19 29 20 20 13 13 12 12 13 7 6 6 6 7 9 7 10 21 53
42 44 46 46 42 34 29 23 18 14 12 13 24 24 34 23 22 14 18 13 9 7 7 6 6 8 10 20 16 19 18 45 74
47 48 47 40 33 29 22 15 13 12 13 14 19 24 30 32 36 25 12 16 12 12 12 13 15 15 24 25 29 25 44 57 68
50 48 39 30 27 20 15 13 13 14 15 18 20 20 20 22 46 50 33 13 11 11 16 18 18 27 35 43 41 55 62 73 82

GFSFLT1_850_rhum_033.txt.gz
RH
88 68 58 53 37 26 22 22 23 24 28 29 29 31 32 33 36 35 34 30 33 61 69 94 82 86 81 86 81 85 85 83 84
96 84 72 49 31 29 28 28 30 33 35 37 40 45 48 50 58 60 57 47 32 39 60 94 94 92 97 99 89 88 88 80 84
93 87 81 45 35 34 35 38 40 42 44 47 48 50 57 66 69 68 66 62 61 57 52 59 94 94 93 70 90 89 89 90 98
85 76 49 36 36 38 40 43 44 46 49 53 54 59 70 69 70 71 73 76 79 80 80 76 82 90 92 82 72 61 54 93 86
56 44 44 43 43 42 44 48 49 56 63 66 69 72 81 85 84 84 85 86 86 84 82 82 84 93 91 86 83 81 81 62 66
65 60 61 56 62 60 60 63 66 70 74 78 86 89 89 89 86 87 85 86 84 84 86 82 86 91 91 87 85 86 85 97 96
68 66 66 69 71 73 74 78 82 86 90 89 90 89 89 89 84 81 79 80 79 79 81 89 92 92 90 89 89 84 86 89 90
71 69 72 74 78 82 85 92 93 93 92 91 89 84 84 88 90 90 86 87 83 74 74 80 82 84 83 83 83 76 86 90 87
79 78 78 80 86 92 92 91 92 92 88 86 84 84 91 92 90 86 75 67 68 74 82 82 81 78 77 78 75 86 91 87 92
86 85 85 89 90 90 88 88 86 84 84 82 78 82 82 66 51 45 51 52 52 49 48 50 54 61 66 74 94 100 99 95 96
95 95 96 95 89 89 89 84 83 79 79 79 72 47 38 37 36 37 39 43 42 43 40 43 59 67 73 79 83 84 88 97 98
89 96 93 88 87 87 86 83 83 78 55 37 35 32 28 26 24 23 23 26 31 38 46 55 61 64 64 66 66 64 65 66 65
87 89 91 88 85 84 78 44 36 35 33 32 30 28 26 24 22 22 28 39 49 48 40 34 31 37 41 46 48 48 47 48 51
93 94 91 76 43 36 36 34 33 31 29 28 25 23 22 21 24 37 50 44 30 25 24 22 23 27 28 24 21 16 17 22 28
92 79 38 37 36 35 35 36 33 29 27 26 24 22 19 19 29 21 22 21 16 10 12 18 26 23 9 5 4 4 6 7 11
39 37 38 37 38 40 40 32 29 27 24 22 21 18 18 17 18 26 20 16 8 9 7 6 6 5 4 4 4 4 5 13 34
38 40 40 44 43 37 29 29 26 21 17 17 20 17 16 20 25 13 12 10 11 8 6 5 5 5 4 4 4 4 6 12 48
42 44 47 45 34 27 27 25 20 17 15 15 24 20 26 19 16 14 13 15 10 8 6 5 5 6 6 6 7 8 9 36 76
46 48 47 36 28 26 23 20 17 15 14 15 19 22 25 26 28 21 13 13 10 7 7 7 7 7 8 12 17 16 23 50 77
49 49 41 31 26 24 20 17 15 14 17 20 22 21 20 24 43 43 26 12 10 8 9 8 9 12 16 23 27 46 68 73 81

GFSFLT1_850_rhum_036.txt.gz
RH
89 63 58 42 31 26 24 23 25 26 27 28 28 30 31 36 42 45 46 40 31 30 44 52 84 80 85 78 71 68 90 96 83
86 78 71 43 32 31 33 34 36 38 35 38 43 46 49 60 66 63 57 52 49 39 38 44 90 92 91 95 97 65 53 69 72
95 88 77 46 39 40 41 42 44 46 49 54 56 55 64 73 73 75 75 77 76 74 73 73 63 87 97 79 57 70 78 82 88
86 86 65 45 46 45 46 47 51 54 59 66 67 71 77 77 82 84 85 86 85 85 82 80 77 79 84 83 79 77 74 59 72
84 60 49 57 56 51 53 60 61 68 71 76 80 84 89 89 88 88 90 91 89 85 84 83 82 81 85 90 86 86 83 80 80
57 65 71 68 70 69 69 71 73 78 78 84 88 90 88 86 86 84 85 83 84 82 81 90 92 90 91 91 89 89 87 86 84
72 72 70 71 74 78 80 84 87 90 90 90 90 88 86 88 89 87 84 79 80 83 75 74 77 94 95 89 88 88 88 88 84
70 71 73 76 78 84 87 92 94 95 91 89 88 87 85 87 91 90 88 86 78 70 71 79 76 78 82 80 79 76 82 83 82
81 80 79 80 86 94 90 90 91 89 85 84 81 80 81 83 84 72 55 47 48 51 50 49 53 60 71 80 80 64 85 93 96
88 87 84 86 92 90 88 88 85 83 81 78 80 81 75 60 42 41 38 38 41 45 45 44 44 44 51 59 65 74 91 89 96
85 89 94 95 91 88 88 86 80 80 78 78 65 42 36 34 31 28 26 26 27 30 33 36 39 43 56 65 70 76 80 82 81
86 89 90 89 88 85 83 82 81 56 38 36 34 32 31 29 27 25 24 25 29 35 39 42 43 46 48 51 57 61 64 63 63
85 86 88 90 89 85 67 39 36 34 33 30 28 26 25 24 22 22 27 37 45 47 38 29 26 28 27 24 22 27 32 38 44
88 85 91 88 48 36 36 34 33 32 29 25 23 22 22 21 21 29 30 24 26 25 17 12 12 16 22 24 21 14 7 8 10
88 84 71 36 37 36 38 36 28 24 24 23 22 20 19 18 21 30 25 22 19 16 11 9 8 6 5 5 5 4 4 4 6
88 40 37 38 40 41 31 23 23 24 23 21 19 16 17 14 17 19 23 22 11 11 10 8 6 5 5 4 4 4 4 4 7
37 38 40 44 44 33 25 23 24 23 21 18 15 13 12 20 24 11 10 12 13 10 8 7 6 5 5 4 4 4 4 6 26
38 41 45 47 39 30 24 24 23 21 17 13 15 16 18 18 16 12 12 11 9 8 8 7 7 6 6 6 6 7 7 12 70
42 46 48 45 38 28 24 23 20 16 13 14 17 20 22 22 23 17 12 12 11 9 9 8 8 8 8 8 9 10 10 34 80
47 49 48 43 36 27 24 21 16 13 15 18 19 17 16 18 37 35 17 11 11 11 10 10 11 10 12 15 16 20 72 81 83

GFSFLT1_850_rhum_039.txt.gz
RH
84 52 49 37 32 28 29 30 40 41 39 35 31 36 41 50 58 62 58 47 40 30 31 42 54 63 79 75 65 51 79 90 96
81 79 67 44 38 38 39 40 43 44 40 51 68 53 52 68 73 72 72 66 66 62 47 45 58 96 90 88 88 92 56 70 88
91 87 74 47 43 44 46 47 48 50 53 57 58 59 67 72 74 75 76 74 76 77 75 73 71 62 78 84 66 55 56 60 66
86 83 69 48 46 46 48 51 53 58 65 70 71 73 74 78 81 80 80 81 80 78 76 81 78 72 72 73 72 74 71 70 65
91 84 52 57 57 53 56 60 67 70 73 76 79 83 85 85 84 83 82 84 83 80 84 84 86 90 89 88 91 90 87 80 77
78 61 63 61 66 67 70 72 74 77 80 85 88 89 88 87 87 87 85 83 80 77 79 79 77 77 86 90 92 94 93 89 84
65 71 70 69 74 75 79 86 87 90 92 90 89 86 86 85 86 89 89 88 88 85 81 80 79 75 75 78 80 74 71 80 89
73 71 70 74 76 80 87 93 93 91 89 87 83 81 80 80 82 80 78 67 58 52 52 52 50 62 71 75 75 72 71 74 75
77 75 77 79 83 92 90 88 88 87 83 85 79 78 80 79 71 57 42 41 40 42 46 50 49 46 47 48 54 56 61 66 59
87 86 86 85 93 89 87 88 86 80 78 77 78 78 65 43 35 34 32 30 28 30 35 37 37 38 41 46 48 52 61 64 68
79 81 83 86 88 85 84 86 84 81 77 66 44 36 34 33 31 30 28 26 26 28 30 32 35 39 46 52 58 63 67 70 72
81 79 83 87 88 84 82 84 78 47 36 35 33 30 28 26 25 23 23 26 29 35 40 41 37 33 31 31 31 30 30 32 37
90 81 80 86 90 89 70 38 35 33 32 31 27 23 22 22 22 24 28 38 43 40 32 23 16 13 12 14 18 22 23 21 18
90 84 86 86 81 36 36 34 34 28 20 18 19 19 19 20 21 25 29 25 22 21 19 15 12 9 8 7 6 5 5 7 7
91 86 88 62 36 36 40 34 23 19 18 19 19 16 16 16 19 26 28 22 24 21 13 11 9 8 6 5 5 4 4 4 5
86 89 54 35 37 43 35 27 21 20 19 18 14 12 14 10 15 17 18 11 12 12 13 10 7 6 6 6 5 5 5 4 5
87 55 35 38 44 40 34 26 22 21 19 15 12 11 11 22 15 12 11 11 10 9 8 8 8 8 8 8 7 7 7 6 7
58 36 39 44 45 41 35 27 22 20 16 12 12 14 19 15 12 11 11 10 9 9 10 9 8 8 8 8 7 7 7 7 18
39 41 44 47 46 41 34 27 21 16 13 12 14 16 16 22 29 14 14 12 12 11 10 9 10 10 10 10 10 10 10 15 84
41 45 48 49 46 40 32 23 17 14 13 15 16 14 13 14 25 34 20 16 14 14 12 12 12 12 13 14 14 16 56 84 89

GFSFLT1_850_rhum_042.txt.gz
RH
55 56 40 32 31 29 31 46 65 69 62 50 40 38 43 58 96 94 88 49 47 34 27 37 44 56 65 80 73 62 47 83 90
79 80 54 37 36 36 33 33 34 36 37 48 72 88 55 78 96 96 84 72 64 61 58 54 56 53 80 85 84 84 75 58 78
84 85 68 41 43 44 45 47 46 49 52 53 56 56 62 86 95 85 78 72 69 68 66 67 68 67 64 72 74 69 60 54 45
88 82 69 44 43 45 47 50 53 56 63 63 67 70 72 81 95 81 94 83 80 78 77 82 86 84 85 77 72 80 80 74 70
80 81 58 51 51 49 54 56 62 66 68 69 72 79 81 97 94 96 84 80 83 85 84 81 77 83 90 94 97 96 89 88 85
88 73 51 56 61 62 66 68 70 74 79 83 85 87 97 97 96 98 82 84 84 82 78 80 79 79 73 73 84 90 89 88 90
69 58 63 60 70 73 75 77 82 88 100 99 89 90 88 86 79 84 75 77 78 72 74 64 57 58 69 82 80 75 73 71 66
68 76 73 72 74 90 83 90 96 89 87 85 83 81 80 77 79 73 67 52 46 43 42 44 45 43 46 51 58 58 62 60 56
90 89 74 76 84 93 94 91 85 83 81 81 80 77 76 75 66 46 34 35 34 35 42 43 41 43 46 49 47 45 46 47 51
90 84 90 86 87 91 85 84 84 83 82 78 77 70 50 36 34 32 31 30 28 30 32 30 30 29 31 36 37 40 46 52 62
79 79 78 81 84 85 83 84 82 80 75 55 36 34 32 31 29 27 26 25 26 28 28 29 32 35 38 41 42 42 44 48 52
77 79 77 78 83 85 82 81 81 47 34 32 31 29 25 24 23 23 25 26 28 31 36 38 33 25 19 15 13 13 14 19 26
80 83 78 80 82 86 83 50 35 34 30 20 18 18 19 20 21 23 26 32 38 32 26 22 18 15 12 9 8 7 6 6 6
86 91 84 84 84 75 36 35 36 27 20 17 18 17 17 19 21 25 27 27 27 25 21 20 16 11 9 7 6 6 5 5 5
91 92 86 86 65 36 38 38 33 25 18 17 16 14 14 15 20 26 30 21 16 14 14 13 10 8 7 7 7 7 7 6 6
96 91 86 67 36 39 42 38 32 24 19 15 16 12 12 11 17 21 21 18 12 12 10 8 8 9 8 8 8 8 7 7 7
92 88 69 37 39 43 42 39 32 24 18 14 20 26 26 32 21 18 13 14 11 11 9 10 9 9 9 8 8 8 8 8 8
85 70 40 39 42 45 44 39 30 22 16 13 14 24 24 26 22 18 17 15 14 13 11 10 10 10 10 9 9 8 8 8 8
69 45 39 42 45 46 44 38 28 19 14 15 13 14 14 26 24 27 30 30 28 34 23 14 12 11 11 12 12 11 9 8 18
51 43 43 46 48 48 43 36 23 16 14 14 15 14 17 28 40 33 28 32 36 40 43 43 32 40 42 49 52 63 78 84 91

GFSFLT1_850_rhum_045.txt.gz
RH
58 50 36 33 29 28 73 85 87 78 86 67 38 32 38 70 90 91 92 92 61 56 37 31 34 43 46 62 64 70 73 45 74
78 70 45 34 35 28 27 29 33 30 28 29 33 38 49 61 91 92 97 95 67 65 61 63 64 64 60 67 86 75 86 64 48
74 76 54 38 39 40 41 43 44 45 48 50 52 53 59 86 90 96 97 83 75 72 67 76 81 84 85 78 63 66 72 67 57
83 85 63 42 42 43 44 46 49 52 59 62 65 65 66 67 93 92 95 86 79 80 82 87 83 79 82 87 95 90 76 81 78
88 84 59 46 45 46 53 53 59 63 65 68 70 70 79 87 89 92 92 81 81 81 78 73 71 71 72 70 68 81 92 95 95
80 77 56 48 55 58 62 65 68 69 80 80 79 77 89 86 87 89 86 77 83 84 82 80 78 68 60 62 65 61 66 78 80
99 69 52 57 62 66 70 73 77 83 90 89 83 79 76 76 79 76 67 66 64 59 50 45 42 42 46 49 49 48 53 54 55
57 68 61 67 69 88 85 88 95 86 79 79 77 74 69 70 68 67 56 42 36 38 42 41 41 44 48 49 47 44 45 46 45
82 85 90 90 90 91 97 92 83 83 81 79 76 72 73 67 55 44 34 33 32 33 38 36 37 38 38 38 34 31 34 37 40
85 86 87 88 90 89 85 82 82 81 76 72 64 47 36 33 34 37 30 30 28 29 29 30 28 27 28 30 32 36 39 43 48
85 90 81 76 77 81 82 81 81 76 67 48 33 31 30 27 26 28 30 26 24 24 24 26 28 33 36 35 28 20 16 14 14
73 72 72 71 77 81 82 80 78 59 33 32 26 18 17 18 21 23 43 30 25 26 29 34 34 29 22 16 13 10 8 8 7
74 73 76 76 79 80 81 71 37 35 30 21 17 16 16 18 24 27 32 28 37 28 24 23 20 19 18 13 9 8 7 6 6
73 77 80 82 81 81 64 34 38 33 26 19 16 16 15 19 23 37 26 23 25 26 18 12 13 12 10 8 7 7 7 7 7
79 82 87 83 84 72 35 39 38 34 27 19 16 15 13 16 22 29 28 30 20 18 14 12 10 8 8 8 8 8 8 8 7
86 88 89 84 82 36 37 40 39 35 27 19 18 24 18 16 25 26 32 36 26 20 18 13 10 11 9 9 9 8 8 8 8
92 96 87 84 41 37 41 42 40 37 27 17 22 29 27 32 25 36 25 19 24 28 19 13 12 11 11 11 10 9 8 8 8
99 96 87 59 38 40 43 44 41 34 26 16 14 29 28 25 23 22 30 21 32 22 20 18 16 15 13 13 14 13 11 10 9
100 92 70 41 41 43 46 46 42 32 20 18 16 14 15 30 27 26 29 30 26 31 32 27 19 17 18 22 24 28 24 15 39
97 75 50 42 43 46 47 46 40 28 18 15 15 16 23 31 38 40 30 28 32 34 37 39 40 34 38 38 43 57 70 82 90

GFSFLT1_850_rhum_048.txt.gz
RH
42 30 24 22 22 33 81 77 79 70 68 68 32 24 41 87 92 94 95 83 68 60 58 59 57 59 56 51 56 59 83 80 44
65 49 33 32 24 24 50 52 53 46 31 25 31 40 58 85 90 92 87 90 74 68 72 73 80 83 83 78 64 66 60 79 52
72 64 39 35 35 35 34 34 36 38 40 45 50 54 60 84 91 89 94 91 79 76 79 84 85 79 79 81 86 79 70 82 66
80 76 47 38 39 40 40 42 43 46 53 58 60 62 67 88 92 80 92 92 79 77 79 81 72 69 69 70 71 80 92 92 87
85 82 50 40 40 40 45 46 52 58 62 66 66 74 86 87 89 87 89 88 77 79 78 76 75 76 69 63 63 62 64 84 92
88 76 48 43 46 48 53 57 62 74 85 89 77 86 84 82 84 84 85 75 64 64 64 59 54 50 44 42 41 45 53 56 66
82 85 62 52 54 59 63 70 82 90 85 85 78 77 74 73 73 68 60 59 51 47 41 37 38 40 42 41 38 39 41 42 41
91 77 54 60 62 78 82 93 90 83 80 78 78 69 67 66 65 60 49 39 34 35 36 34 36 37 40 38 33 32 31 31 32
65 72 84 76 83 90 92 90 88 80 78 76 74 70 64 52 48 34 31 32 32 32 32 32 31 31 30 28 25 24 25 26 31
82 86 84 88 90 86 84 81 79 77 74 69 52 35 30 29 31 28 28 26 27 26 28 26 26 24 25 28 30 31 28 23 19
86 84 87 85 81 80 83 80 79 69 55 41 32 30 26 21 21 20 21 24 24 24 24 24 26 30 32 30 23 17 13 11 8
86 84 78 75 72 77 80 82 78 54 32 33 25 19 16 16 18 24 22 24 23 24 25 28 27 22 19 18 17 14 10 8 7
79 72 72 74 76 74 78 74 48 33 35 30 22 17 15 15 21 24 26 24 24 23 21 22 17 13 14 14 10 8 7 7 7
73 69 73 79 76 78 78 55 34 37 36 31 23 17 15 14 19 23 25 24 24 26 20 16 13 10 9 8 9 8 8 8 8
73 74 80 79 79 80 73 34 38 39 37 31 20 17 15 12 14 19 23 22 19 20 17 16 13 11 10 9 9 9 8 8 8
74 79 82 85 82 81 39 36 40 41 38 31 21 17 20 20 22 19 25 24 26 19 17 14 14 13 12 11 11 10 9 9 8
83 84 86 88 82 68 35 40 42 43 39 29 21 21 23 28 30 22 22 27 20 20 19 20 17 17 15 14 12 13 13 12 11
88 92 93 89 83 50 39 42 44 44 39 28 20 17 27 24 19 24 26 23 23 24 26 20 21 20 17 16 15 17 17 20 31
99 100 99 87 73 39 40 44 46 44 37 28 19 14 14 14 15 20 26 26 30 26 21 23 21 21 20 22 24 26 28 45 67
98 99 98 82 49 40 44 46 47 44 34 23 16 15 15 17 25 26 19 18 19 17 20 23 26 29 34 37 40 38 47 67 81

GFSFLT1_850_rhum_051.txt.gz
RH
26 22 21 19 26 74 80 83 79 80 76 69 30 27 69 90 88 94 92 82 71 68 89 61 71 72 69 62 56 62 50 80 62
32 25 24 19 19 38 54 50 50 48 33 25 38 46 79 87 91 91 83 84 77 75 88 80 84 81 86 90 86 69 53 53 61
43 30 28 28 27 24 26 28 30 33 40 46 49 57 76 90 89 84 93 88 85 81 86 88 84 76 75 73 76 93 90 82 80
62 41 31 33 35 36 36 38 42 48 52 55 58 64 86 92 91 86 88 91 86 76 74 72 69 66 67 63 62 68 78 90 94
80 60 37 37 37 39 41 44 49 54 57 60 66 83 86 86 84 86 84 86 86 68 66 72 74 74 62 52 48 56 62 61 71
83 71 39 39 40 43 50 54 60 72 78 73 85 85 82 82 81 82 83 80 67 60 55 50 47 44 43 40 40 41 40 39 44
80 68 47 43 47 52 58 65 73 80 86 81 75 77 75 74 75 68 62 59 51 45 40 40 42 46 45 41 39 38 38 37 36
82 72 52 53 55 64 72 72 77 74 81 79 79 73 68 65 64 65 58 44 36 49 38 39 41 41 39 33 30 27 25 25 25
84 73 58 62 70 84 84 84 87 82 79 78 74 69 67 52 40 35 31 32 33 34 32 32 32 30 28 25 26 27 29 29 29
68 66 76 73 84 88 85 87 82 77 72 62 52 38 31 28 25 22 22 24 26 29 29 28 25 24 26 29 30 27 20 16 13
58 74 84 78 85 86 90 86 79 76 65 53 34 31 26 20 15 15 18 20 23 26 25 24 26 28 27 22 18 17 16 15 10
80 84 82 83 88 85 83 84 80 66 43 34 30 25 19 17 14 15 16 19 22 22 22 24 21 19 14 13 14 14 10 8 8
87 86 82 86 80 75 78 79 79 50 34 34 30 23 17 15 14 15 16 20 20 20 18 18 16 13 11 9 8 9 9 8 8
88 86 82 76 73 74 77 73 46 34 37 36 32 24 17 14 14 15 16 17 18 17 16 15 13 12 11 10 10 10 9 9 9
91 87 78 74 75 76 77 68 33 38 39 38 33 24 18 17 15 17 17 16 17 17 17 14 13 13 13 12 11 11 11 12 13
84 82 76 75 78 79 79 57 34 39 41 40 32 24 21 21 23 18 18 20 21 20 17 16 19 16 16 15 14 13 12 13 18
82 80 76 78 81 81 77 48 36 41 42 40 34 21 26 23 25 24 20 23 27 23 22 22 20 16 16 17 17 17 17 18 46
83 90 82 83 86 84 78 40 38 43 44 41 34 19 19 18 17 21 31 36 25 23 22 25 20 18 18 18 19 20 23 24 68
85 96 90 91 92 85 67 40 40 45 45 42 32 22 16 14 14 18 19 21 22 22 22 20 18 18 20 23 22 27 28 36 73
99 98 94 95 94 79 51 39 43 46 46 40 28 20 16 15 16 17 17 17 17 17 16 16 16 18 25 29 36 40 46 63 70

GFSFLT1_850_rhum_054.txt.gz
RH
18 18 20 31 70 80 88 87 85 81 78 71 32 42 72 86 87 93 81 76 71 68 77 68 83 81 83 80 66 65 54 68 76
20 20 19 22 60 72 82 83 79 77 42 25 31 53 87 84 87 90 87 83 82 88 86 84 86 85 88 83 85 88 66 55 61
25 24 23 20 29 54 48 36 30 26 34 44 50 76 87 90 89 87 91 85 84 75 76 81 86 77 72 77 78 88 95 92 92
35 28 29 31 30 30 31 35 39 46 52 56 60 73 90 87 88 86 85 86 88 81 72 74 74 76 83 72 67 71 73 84 91
55 34 33 35 37 38 40 44 49 53 59 65 80 90 89 85 84 85 84 86 85 70 59 70 83 93 62 49 43 42 45 58 66
74 50 35 37 38 43 47 52 55 60 64 71 84 78 79 82 83 82 82 79 70 59 55 59 53 50 48 46 45 44 40 40 41
80 64 38 42 45 51 54 58 68 72 72 75 77 73 72 72 74 75 66 62 60 52 47 47 51 50 48 44 39 36 33 30 28
75 67 49 46 52 59 59 64 72 76 83 78 75 72 63 64 64 62 60 55 41 68 46 46 46 46 41 32 27 26 25 25 26
66 66 51 51 57 68 74 80 82 77 75 76 78 74 65 59 52 43 33 32 39 44 35 39 36 32 27 25 25 28 28 24 19
68 72 58 59 65 76 77 82 85 84 79 73 63 52 39 31 27 24 21 21 25 27 31 30 25 24 27 28 25 21 18 16 15
69 72 65 74 74 82 85 88 88 82 77 64 51 36 30 24 19 18 18 20 23 26 25 24 24 25 23 18 15 14 14 13 11
72 58 68 75 75 81 88 90 88 82 73 54 35 31 25 20 16 16 18 21 23 24 23 23 20 18 14 12 11 10 9 9 9
76 68 75 80 83 86 88 84 83 80 66 36 34 29 23 18 16 16 18 20 23 22 21 18 16 14 14 12 11 14 11 10 9
76 76 83 85 84 85 79 77 75 71 39 36 35 30 23 18 14 14 16 19 20 19 18 17 15 13 13 12 12 13 13 11 11
82 85 88 87 85 84 76 76 75 47 37 38 36 30 24 18 17 18 18 18 21 20 20 18 16 17 16 15 14 14 13 13 13
84 89 90 90 87 77 76 76 77 35 39 40 38 31 24 22 20 23 21 24 25 23 20 19 19 19 17 15 15 14 13 14 15
74 82 91 92 87 80 80 79 75 35 39 41 37 31 30 28 24 25 24 24 27 26 22 22 22 21 16 16 15 14 15 14 26
73 79 83 88 85 80 81 82 72 36 40 43 39 30 26 24 22 20 21 28 33 29 24 24 24 20 17 16 15 16 15 17 53
67 75 86 90 86 85 88 84 58 40 42 43 42 35 29 18 16 20 23 27 28 24 23 21 19 18 16 16 18 17 20 37 73
65 64 81 87 93 90 90 84 62 44 43 45 42 34 29 22 17 16 18 20 21 20 18 18 17 16 16 18 17 20 25 34 73

GFSFLT1_850_rhum_060.txt.gz
RH
14 15 28 98 83 83 98 99 85 84 79 75 39 50 66 69 70 69 78 89 94 94 86 89 90 93 93 78 92 87 83 71 70
15 16 20 64 76 99 97 86 86 83 77 35 34 68 77 76 80 77 92 95 94 87 79 72 74 75 85 83 91 97 97 93 91
16 16 19 39 66 77 84 82 83 77 31 35 58 82 84 86 84 78 82 85 80 74 65 67 70 68 74 80 74 95 99 98 96
19 18 18 28 44 57 61 57 40 33 46 50 61 80 83 84 83 82 83 84 77 69 64 78 91 77 70 59 52 50 53 70 82
22 24 24 26 33 35 31 34 43 50 52 55 67 73 80 80 81 84 83 84 73 63 64 63 69 55 44 38 37 37 39 37 39
26 28 32 35 35 36 39 46 53 57 59 62 69 76 80 80 82 83 82 77 66 68 50 49 45 40 37 36 35 34 32 30 30
42 32 35 38 41 43 49 57 60 62 64 65 74 80 79 77 77 75 70 67 82 60 40 41 41 36 33 31 27 23 21 20 20
69 55 38 40 42 48 53 59 66 71 70 74 75 74 73 69 66 62 60 60 77 41 32 28 30 31 27 22 20 21 22 22 21
73 68 42 44 47 52 60 68 78 78 78 80 78 76 73 64 58 50 38 37 58 38 29 22 23 24 21 20 22 21 18 15 14
62 71 58 49 50 55 63 71 78 80 79 79 77 73 61 50 35 29 23 22 26 28 24 23 23 21 22 20 16 13 10 10 9
58 69 65 63 55 62 71 80 82 85 86 82 77 68 57 39 31 23 19 18 20 23 24 22 21 21 17 15 13 12 11 10 9
51 67 70 70 63 67 77 83 86 89 89 86 80 64 43 33 26 21 18 18 19 22 22 21 19 16 14 13 13 11 10 10 10
47 62 75 80 78 78 84 88 90 90 90 87 82 62 36 31 26 20 18 19 19 21 22 20 17 15 13 12 11 12 12 11 11
50 57 72 80 74 82 85 87 90 90 88 86 82 49 35 32 26 21 19 20 21 20 19 18 17 15 14 15 14 13 12 12 11
70 61 72 76 68 80 87 88 90 88 86 82 77 38 36 34 28 22 20 19 20 20 19 18 18 16 16 16 15 14 13 13 12
75 73 76 76 72 75 85 88 91 89 85 80 60 36 37 35 30 25 23 23 22 24 22 21 20 18 17 17 16 15 14 13 13
65 70 75 76 77 78 87 87 88 89 82 78 57 36 36 37 34 29 26 26 26 28 26 25 23 20 19 17 16 15 14 13 13
65 65 65 64 78 77 82 90 92 91 83 80 53 38 39 36 35 32 30 28 29 28 28 29 26 22 20 18 17 16 15 14 17
63 66 63 61 74 80 82 90 94 97 87 83 69 41 38 33 34 35 31 29 28 28 31 32 27 23 19 18 17 16 16 15 14
60 60 61 61 68 79 87 88 96 98 92 89 84 46 41 41 36 27 30 27 26 27 30 29 26 21 20 19 18 17 16 16 14

GFSFLT1_850_rhum_063.txt.gz
RH
17 20 95 72 45 58 78 95 93 80 80 71 32 56 65 63 64 71 87 93 95 90 83 84 94 92 87 83 93 91 82 73 61
19 23 93 87 70 92 96 91 78 86 79 44 40 67 69 73 69 85 91 94 87 80 71 64 81 87 82 80 90 97 98 98 97
18 19 28 58 74 99 92 84 84 81 58 28 50 68 73 72 71 72 83 86 72 63 53 75 75 64 66 73 74 87 95 93 94
19 19 31 49 64 80 81 77 76 52 32 37 55 72 74 75 76 74 78 81 68 63 76 86 81 68 58 41 38 43 44 55 69
22 20 25 43 53 59 56 44 33 35 46 55 68 76 81 81 79 81 78 75 64 65 59 61 42 44 40 36 34 34 32 32 34
26 26 26 31 43 39 34 37 45 50 54 59 65 74 84 82 82 83 82 73 83 67 49 45 39 38 34 29 28 26 24 22 22
30 32 35 35 35 38 42 48 52 56 61 67 76 81 81 79 80 80 73 71 87 68 46 38 36 30 26 24 21 19 17 18 18
43 32 35 37 40 42 46 50 57 62 66 70 76 76 74 72 68 65 62 73 86 47 36 27 26 24 20 18 18 18 18 18 17
62 50 40 39 40 46 51 54 61 70 71 72 75 75 74 68 59 51 41 57 70 39 28 22 23 22 19 18 18 16 12 10 10
60 71 64 41 45 50 55 59 66 71 72 76 76 75 69 55 45 33 28 27 30 29 24 21 22 21 20 16 14 12 11 10 9
58 66 75 56 48 54 60 64 69 76 78 80 78 75 65 54 37 30 23 22 23 23 25 23 21 20 15 13 12 11 10 10 9
49 60 72 71 65 56 62 69 77 80 85 86 83 79 65 46 34 27 22 20 22 24 24 22 20 17 15 13 12 11 10 10 10
48 55 70 73 74 60 64 72 83 84 88 88 85 82 69 38 32 27 22 19 20 22 23 20 18 16 14 13 12 13 12 12 11
74 59 59 79 86 78 72 75 84 88 90 89 86 82 75 37 32 28 24 19 19 19 18 16 16 16 14 14 15 14 13 12 12
87 81 56 72 89 86 80 84 88 89 94 92 86 80 67 36 34 30 26 21 20 20 18 19 19 18 15 16 15 15 14 13 13
70 75 67 58 78 80 72 83 89 92 93 91 85 79 53 36 36 33 28 24 23 23 22 23 22 20 19 18 18 16 15 14 13
66 68 75 69 72 79 74 74 86 90 94 90 84 63 51 36 37 37 33 28 26 26 26 26 25 24 23 21 19 16 16 14 14
61 64 66 73 76 78 77 72 82 88 90 91 79 60 49 38 37 37 36 32 29 28 30 28 28 27 26 23 20 18 17 15 14
63 64 62 63 68 77 79 78 78 89 94 92 88 79 58 38 38 37 35 34 33 31 31 30 29 29 28 24 19 18 17 15 15
61 63 61 60 63 63 70 80 83 88 97 94 91 83 72 53 42 37 38 37 34 32 32 31 30 31 27 22 21 19 18 17 16

GFSFLT1_850_rhum_066.txt.gz
RH
18 20 54 58 52 76 93 96 93 78 76 58 41 52 54 66 91 100 90 97 94 90 76 89 92 91 87 94 95 92 85 79 63
18 36 82 61 78 81 93 96 86 76 78 39 53 61 60 92 96 100 96 96 88 73 67 63 74 75 75 83 91 97 96 97 96
20 51 98 85 90 84 95 92 74 80 70 29 60 66 69 91 94 100 100 80 69 59 59 64 66 64 56 68 72 73 84 91 92
19 22 49 80 97 99 94 86 81 77 33 38 64 70 73 95 94 93 98 78 73 81 82 78 61 59 49 39 37 41 45 54 64
21 22 42 64 85 90 87 77 68 35 42 44 63 69 76 95 97 95 96 75 79 79 70 57 41 38 37 35 33 32 31 32 33
24 25 34 45 62 70 65 41 32 42 48 54 61 68 94 94 94 93 78 68 84 70 51 38 34 35 35 31 27 24 20 19 18
53 27 29 38 48 45 34 36 46 53 63 56 62 90 90 92 91 88 69 72 74 58 37 31 29 27 29 26 21 18 17 17 18
33 35 35 35 36 41 42 45 54 72 84 67 85 83 87 84 77 70 62 72 66 56 31 24 23 24 22 20 19 19 18 15 14
80 69 64 51 46 82 84 93 88 60 64 77 79 77 77 74 64 61 51 59 58 51 29 24 22 21 18 18 17 14 12 10 9
94 94 70 59 77 82 86 86 75 78 73 73 76 75 73 68 56 54 33 39 42 37 25 21 21 20 18 15 12 11 11 10 9
93 96 91 76 48 70 85 87 72 72 72 73 77 77 73 62 52 56 50 28 34 34 27 26 23 20 16 13 11 10 10 10 10
73 93 95 84 68 57 69 82 70 71 76 78 81 80 75 65 51 35 82 34 26 25 24 23 21 20 16 14 13 11 11 10 10
47 59 90 94 94 76 67 64 65 77 78 83 85 84 79 70 45 33 29 34 42 22 23 22 20 17 15 14 13 14 13 12 12
62 62 65 77 96 94 73 69 68 78 84 87 87 85 81 78 48 33 30 26 24 27 20 21 18 17 16 14 14 14 14 14 13
74 76 77 73 92 90 86 73 68 74 87 92 90 87 82 77 55 34 32 29 24 22 21 20 19 18 18 16 16 16 16 15 14
72 78 82 82 75 82 86 80 75 79 89 96 94 88 83 76 55 35 34 32 28 24 23 22 21 22 21 20 19 18 18 16 15
58 64 68 74 73 83 79 85 82 84 91 94 79 69 72 77 64 38 35 35 32 29 26 25 25 26 25 24 24 21 19 17 16
57 60 62 64 70 68 59 72 82 81 83 95 82 74 68 58 61 51 37 36 35 32 29 28 30 31 30 29 28 24 21 18 17
58 56 64 65 63 66 64 67 76 86 77 92 92 85 62 51 49 45 39 37 36 35 32 32 33 35 34 33 32 26 21 19 18
48 55 62 66 67 66 64 65 78 82 87 79 88 91 88 79 62 52 48 43 38 37 36 36 36 37 36 34 31 25 21 20 18

GFSFLT1_850_rhum_069.txt.gz
RH
28 25 33 67 46 80 97 93 83 76 69 35 42 47 64 88 90 97 96 93 92 88 84 94 94 90 96 92 95 97 92 80 65
19 44 49 59 67 90 95 95 88 70 73 34 56 55 76 88 90 92 92 95 82 86 72 65 70 74 73 85 94 91 95 97 94
20 68 69 89 73 88 92 96 84 72 70 31 57 59 73 84 86 92 89 74 67 82 58 57 62 61 56 65 71 74 82 90 91
21 44 88 91 80 77 95 91 72 72 44 33 55 60 77 89 87 89 84 66 75 78 72 48 43 43 43 37 34 36 38 44 58
21 24 45 88 97 99 94 85 73 62 33 40 60 64 73 90 91 88 88 64 78 70 51 41 33 30 32 31 29 28 29 30 31
21 26 37 76 69 80 82 70 56 34 44 49 60 65 89 86 87 89 71 70 74 66 46 29 24 24 24 22 20 17 16 16 16
47 27 29 39 57 68 60 41 35 47 57 53 57 74 87 86 88 86 65 65 66 61 38 26 23 22 20 19 16 15 15 16 15
51 31 26 33 42 48 37 34 44 63 84 82 82 84 82 81 82 73 57 58 59 56 35 22 19 18 19 17 16 16 14 12 10
71 79 50 63 48 81 62 81 86 92 86 78 79 80 79 77 75 71 58 60 44 40 30 20 17 18 17 17 16 12 11 10 10
82 76 79 86 84 82 90 88 87 92 86 76 76 77 77 71 66 63 51 37 34 32 28 21 18 19 18 16 12 12 11 10 9
85 89 86 82 81 81 86 88 88 87 86 76 75 72 71 70 62 60 55 36 33 32 30 22 20 18 17 13 11 10 10 10 10
85 88 97 98 87 82 85 87 87 84 82 73 68 69 69 69 64 55 78 57 35 33 30 22 22 20 17 14 12 11 12 11 11
85 92 90 94 98 88 85 87 92 84 78 72 68 72 76 74 70 56 62 76 49 33 23 20 19 19 17 15 14 13 13 13 14
79 90 90 90 94 98 90 89 90 82 78 74 71 77 80 79 74 64 46 47 55 37 26 20 19 19 18 16 15 14 15 15 15
92 88 91 92 93 97 98 93 91 85 78 76 72 81 83 82 78 74 48 39 34 32 29 24 21 20 18 18 17 17 17 17 17
94 94 94 95 92 87 99 97 95 82 86 84 76 80 85 83 81 74 57 38 36 32 30 26 24 22 21 21 20 19 20 19 18
60 80 90 95 92 95 96 98 100 90 79 76 77 79 79 84 82 76 65 43 39 36 33 30 28 27 25 25 24 24 24 23 20
79 62 76 92 98 92 91 89 97 83 82 77 79 80 74 65 64 72 70 50 46 42 38 34 32 31 31 30 29 28 28 27 22
60 86 80 76 90 99 88 93 83 86 82 80 79 82 70 67 60 62 61 58 52 47 44 39 36 32 34 33 33 31 32 29 24
46 52 61 69 80 75 84 96 100 89 85 73 81 84 85 73 56 54 56 52 48 48 45 41 38 35 36 36 37 36 34 29 23

GFSFLT1_850_rhum_072.txt.gz
RH
26 20 32 35 64 93 94 84 75 70 44 37 42 64 89 91 83 85 92 92 91 85 90 87 83 78 88 93 96 91 87 91 72
21 49 55 73 66 97 97 95 86 69 51 43 49 67 88 85 80 81 86 87 78 78 68 59 51 60 68 83 91 92 95 94 91
45 64 73 75 92 93 94 96 89 70 51 42 51 72 85 88 86 81 85 69 85 72 57 54 54 57 54 59 66 72 78 90 90
28 56 83 76 78 88 91 93 79 67 37 39 53 66 84 86 88 86 85 64 81 75 55 42 35 34 36 34 33 33 33 35 44
21 24 56 75 75 78 81 84 69 59 30 38 52 59 85 82 84 91 84 62 79 58 48 33 25 22 24 24 23 23 23 24 26
19 22 31 71 61 50 71 70 58 36 36 40 52 64 87 88 86 86 84 56 60 57 39 24 19 18 19 18 16 15 14 14 14
22 20 25 30 35 47 56 50 34 33 43 46 50 76 85 87 85 85 74 52 48 48 35 20 17 17 17 16 14 14 14 14 14
43 32 23 26 29 41 41 35 32 46 58 68 55 81 86 85 83 74 60 49 45 41 33 21 17 17 17 15 15 14 11 10 9
52 31 26 26 28 32 34 32 38 52 86 81 78 79 83 81 78 72 62 44 41 37 31 21 15 15 15 15 13 11 10 10 9
58 48 51 41 41 48 53 58 77 79 78 77 78 79 79 75 72 66 56 44 34 33 27 22 15 14 14 14 11 10 10 9 9
68 78 71 68 79 71 85 77 89 88 84 80 75 76 72 69 67 62 51 46 37 30 26 23 17 15 14 12 12 11 10 11 11
75 84 88 77 75 78 81 85 86 88 84 86 76 70 66 68 69 63 56 45 42 32 28 24 19 16 14 13 12 12 13 13 13
70 75 88 89 74 82 80 82 87 87 83 81 75 68 66 68 69 68 58 49 42 37 32 26 20 19 17 16 14 14 14 16 18
66 66 75 84 92 83 82 83 83 88 83 80 72 70 66 72 75 72 64 51 39 36 37 30 21 20 18 17 16 16 16 17 18
77 74 70 80 88 88 89 83 86 88 82 78 73 73 69 74 78 76 73 62 46 37 36 34 29 22 20 18 18 18 17 18 19
82 79 80 76 82 80 86 89 94 90 89 85 79 72 70 76 80 80 77 72 61 43 36 35 32 27 23 21 20 20 20 20 21
77 77 77 84 88 91 82 92 96 98 92 88 86 76 70 74 79 81 81 77 69 49 41 36 34 32 28 25 23 24 23 23 24
72 67 70 69 85 95 95 74 83 94 100 93 82 77 76 70 69 73 81 78 72 63 47 42 38 36 33 30 28 27 28 27 27
68 68 73 77 80 93 75 90 70 85 99 100 91 80 76 73 68 66 64 70 69 65 56 48 46 46 40 35 33 32 33 33 32
56 60 74 88 91 96 100 100 100 78 81 98 96 86 84 77 67 63 62 63 63 61 60 55 51 49 44 42 38 36 38 38 36

GFSFLT1_850_rhum_075.txt.gz
RH
25 18 22 52 93 84 84 81 77 40 34 41 80 93 89 80 74 90 91 89 88 89 85 82 75 82 92 93 92 89 94 92 91
17 23 25 56 91 86 92 91 71 48 40 48 83 90 87 86 82 81 87 85 80 72 63 50 46 51 64 78 85 87 94 93 92
20 27 34 63 91 94 93 84 66 52 37 47 80 87 86 84 83 80 77 68 69 54 41 35 33 43 46 55 61 68 74 79 81
39 57 72 85 90 85 77 80 62 50 30 48 66 77 85 83 85 82 77 62 64 51 37 32 26 27 30 32 31 31 32 34 40
30 65 63 58 72 76 72 66 53 44 28 46 52 63 81 77 80 79 78 55 54 46 34 23 18 17 18 19 19 19 20 21 22
21 24 31 40 43 58 52 50 45 35 33 41 49 69 84 87 84 84 79 61 44 45 31 19 15 14 14 13 13 13 13 13 14
20 20 26 29 27 34 40 42 35 28 35 41 49 68 84 86 86 80 76 61 42 37 30 18 14 13 14 13 12 13 13 13 13
23 21 23 26 26 31 36 35 28 31 38 43 50 71 82 86 83 74 66 53 40 35 29 21 15 14 13 13 13 11 10 9 9
45 37 33 25 28 34 34 34 31 39 48 55 61 78 83 85 82 67 62 52 41 34 30 22 16 14 13 12 11 10 10 10 9
60 48 38 30 28 30 34 35 35 47 62 71 70 69 81 84 79 68 66 54 42 34 29 23 17 13 12 12 10 11 10 10 10
66 58 49 54 48 49 48 53 65 72 72 76 78 79 78 72 70 68 64 57 45 38 28 25 20 15 13 12 12 12 11 12 12
73 60 59 66 60 58 65 71 78 90 91 82 81 76 77 74 65 65 65 59 52 42 35 28 24 17 14 13 12 13 13 14 15
73 63 63 71 74 73 66 72 78 84 89 84 87 83 73 69 66 65 67 64 58 47 41 34 28 21 17 15 15 15 16 16 18
72 69 68 78 85 82 75 69 71 80 86 85 83 81 74 68 65 67 69 68 64 54 44 37 33 25 20 18 17 17 18 18 19
68 66 67 67 72 79 86 83 74 72 80 88 86 82 77 71 67 68 74 72 70 65 53 40 37 32 24 22 20 19 19 18 19
74 72 71 75 73 72 79 88 90 84 83 91 92 84 76 74 70 69 75 76 74 71 66 51 40 38 34 27 23 21 20 20 20
79 75 71 70 81 84 80 87 92 95 92 91 92 86 81 77 68 67 73 78 77 76 72 64 46 42 39 34 29 25 22 22 22
70 85 88 81 82 84 83 79 87 74 86 92 90 86 83 72 64 64 66 75 79 76 74 68 56 46 46 41 33 30 26 25 25
71 76 81 83 91 90 87 88 75 73 73 91 98 92 82 73 71 67 66 72 80 75 69 67 64 56 50 50 47 39 35 33 32
65 61 64 75 86 90 96 95 95 86 84 85 98 100 96 93 84 76 73 70 74 81 76 67 68 71 60 56 54 58 52 44 43

GFSFLT1_850_rhum_078.txt.gz
RH
19 20 65 90 91 82 80 66 29 30 48 71 79 76 73 72 88 91 90 99 90 80 75 70 69 79 91 92 92 92 90 91 77
15 18 43 92 89 83 82 70 37 39 54 71 72 80 84 84 83 88 86 86 78 68 54 40 42 49 62 73 87 89 92 89 94
16 18 38 81 86 86 72 57 46 38 46 63 72 77 75 72 78 69 74 65 57 40 34 29 27 35 42 51 58 62 66 69 76
16 16 34 71 77 79 59 61 47 29 41 56 63 64 71 69 77 70 65 51 42 37 29 22 18 21 27 30 31 32 34 34 36
21 24 41 64 72 73 62 55 44 28 36 46 57 57 62 70 70 64 57 49 40 39 26 17 14 13 15 17 18 19 20 21 23
26 31 57 75 74 74 59 53 44 31 32 42 46 54 59 60 70 75 66 58 40 37 27 17 14 13 13 13 13 13 12 13 13
28 25 40 60 58 64 58 56 47 31 33 41 46 56 66 71 75 75 71 62 44 35 28 21 15 13 13 13 12 12 13 13 12
20 22 23 31 29 37 52 56 44 30 37 42 49 64 74 73 71 75 70 64 50 37 30 24 17 14 13 13 13 12 10 9 9
29 25 25 25 26 30 38 42 41 32 41 45 49 65 78 78 78 79 68 62 52 40 31 27 21 15 13 13 13 10 10 10 9
48 50 44 34 27 27 32 36 34 33 50 59 57 65 79 78 81 80 72 63 58 46 37 30 23 16 13 12 12 11 10 10 10
51 56 49 38 39 34 35 36 40 39 48 56 62 62 69 74 78 80 73 66 62 52 43 34 27 21 15 13 11 12 11 11 12
58 60 56 50 51 54 54 52 58 66 71 72 76 76 73 71 73 74 72 68 65 58 51 41 33 28 19 14 13 12 13 13 13
66 67 63 58 60 64 65 65 65 66 74 79 82 84 80 76 73 72 69 67 68 64 59 48 42 34 26 19 15 14 14 14 15
65 62 60 61 63 70 74 78 75 71 75 80 86 85 84 84 78 70 63 63 68 69 66 58 49 43 37 26 22 17 16 16 16
66 64 63 64 63 66 76 83 86 82 77 83 88 89 86 85 82 74 66 63 66 72 71 67 59 47 46 38 50 39 19 18 17
73 72 72 72 69 67 71 80 90 88 88 84 86 88 90 88 85 79 70 67 66 71 74 72 70 61 48 43 39 73 55 24 20
82 77 75 77 76 76 78 83 85 86 94 95 90 91 90 85 78 78 75 70 70 69 74 74 73 71 62 52 48 45 86 76 29
73 73 69 75 85 87 84 85 87 88 85 94 96 91 89 78 70 66 70 74 73 70 72 75 73 72 70 66 65 59 52 57 51
73 74 76 81 88 93 90 95 96 98 98 95 97 98 93 86 80 74 72 72 72 76 78 78 79 77 81 80 76 72 78 60 53
67 75 79 82 85 84 90 97 94 96 96 93 87 92 99 95 92 89 88 88 82 78 83 88 91 90 96 97 80 78 83 74 71

GFSFLT1_850_rhum_081.txt.gz
RH
24 62 91 86 80 76 61 25 25 31 34 39 46 59 74 82 87 89 97 86 72 70 65 60 75 91 90 92 91 87 88 77 86
16 39 80 82 80 73 68 35 29 33 41 49 56 70 76 79 82 86 86 84 76 59 46 34 35 55 97 94 94 94 92 93 93
14 24 74 77 80 76 62 42 30 37 48 53 62 73 69 71 74 70 72 62 45 37 32 28 26 32 43 52 59 66 78 80 90
15 19 61 74 76 71 59 44 33 43 54 63 71 70 67 65 63 59 52 43 37 35 29 20 16 18 25 30 33 34 36 36 39
17 19 54 70 71 70 57 49 40 40 54 72 70 66 66 65 63 59 55 48 37 35 27 18 14 13 15 16 17 18 20 22 22
24 31 57 73 72 69 58 53 48 32 52 68 63 58 62 62 66 65 66 59 45 36 30 23 16 14 14 14 13 13 12 13 13
25 26 42 69 68 72 63 58 54 39 38 50 53 62 61 67 69 72 74 67 54 39 34 26 20 14 13 13 13 13 13 13 13
22 24 25 38 38 39 44 46 46 38 34 43 50 59 66 69 71 73 78 73 60 48 38 30 24 17 14 14 13 12 11 10 10
22 24 24 27 32 34 37 45 44 33 32 38 46 54 68 72 70 73 74 72 68 61 47 36 29 22 15 14 14 12 11 10 10
38 35 34 34 32 28 31 38 39 34 32 40 44 47 58 68 74 76 75 74 71 65 59 43 34 27 19 14 13 12 12 11 10
47 52 48 44 39 31 29 33 36 36 34 43 51 59 61 62 67 73 75 73 73 67 64 55 44 33 26 17 15 13 12 12 11
60 58 56 53 50 50 46 45 44 48 50 51 59 65 64 65 65 71 77 76 74 69 68 62 57 45 37 28 18 15 14 13 13
68 65 62 63 58 59 58 60 60 59 61 63 68 76 78 79 76 77 76 75 73 69 68 68 66 58 49 42 33 19 15 14 14
68 66 66 69 66 62 65 69 73 75 74 73 74 79 80 83 84 79 78 77 72 67 65 69 70 67 62 57 78 71 34 17 17
70 67 67 71 70 67 67 68 76 79 85 87 84 82 84 88 87 84 84 82 77 71 67 67 73 72 71 70 84 97 99 65 25
77 68 70 73 71 68 72 74 76 79 87 97 93 89 86 85 84 87 86 84 82 76 70 69 70 74 74 73 75 94 96 100 67
76 75 73 77 80 78 77 79 80 82 88 99 97 93 86 88 80 76 78 80 85 81 77 74 71 73 74 77 88 87 94 100 98
77 76 80 83 88 88 88 89 89 88 89 94 100 92 82 84 77 76 75 75 73 78 77 74 72 74 84 92 91 86 85 94 98
78 78 79 83 88 92 92 90 91 95 90 90 94 96 98 99 94 89 83 80 77 80 84 79 74 76 80 88 99 94 90 93 87
84 85 78 70 76 82 83 85 96 87 88 86 83 89 95 100 100 100 96 91 85 86 88 88 83 80 86 90 98 100 93 99 100

GFSFLT1_850_rhum_084.txt.gz
RH
64 86 83 78 70 42 22 21 24 32 42 48 70 76 81 83 88 98 92 76 68 60 53 54 80 85 89 90 88 89 82 86 91
34 86 84 80 73 55 32 28 32 41 48 54 65 68 72 80 84 87 86 79 54 35 33 29 32 68 95 91 92 90 92 92 93
19 70 75 74 72 59 39 30 36 44 50 57 64 64 67 69 68 65 67 54 41 34 28 21 19 25 39 53 62 76 88 90 92
16 53 72 70 69 55 42 34 36 43 51 60 64 64 65 71 65 61 56 46 38 38 27 18 14 14 17 24 30 32 35 35 37
18 34 64 70 69 57 54 47 33 43 51 56 63 62 65 66 64 64 63 59 48 36 31 23 16 13 12 13 14 15 17 18 19
17 32 77 74 70 64 60 53 43 37 46 54 57 60 64 65 68 71 69 67 58 42 34 28 21 15 13 13 12 12 13 13 13
23 25 51 69 65 60 53 51 44 33 34 49 56 56 60 66 70 72 71 69 63 56 44 35 28 20 15 14 13 13 13 13 13
28 30 33 47 56 55 55 50 48 43 31 34 43 51 55 60 64 70 75 75 68 63 58 46 35 27 19 15 14 14 12 11 11
25 29 28 33 40 38 39 46 48 43 32 34 39 47 55 59 63 66 73 78 77 70 67 60 46 35 27 17 15 14 12 12 11
26 25 26 26 30 32 32 39 45 45 36 34 40 46 51 56 64 67 69 74 76 74 71 67 60 50 35 26 16 15 13 13 13
44 45 47 47 40 39 33 32 36 39 37 33 43 53 59 61 63 65 68 69 73 74 73 70 67 62 50 39 27 17 15 14 14
55 53 56 58 50 49 46 42 43 41 46 44 44 52 61 65 66 68 69 72 74 74 74 73 70 68 66 54 43 30 17 15 14
69 65 60 67 64 58 58 58 57 58 59 60 63 64 65 66 72 73 75 76 79 78 75 70 68 70 72 69 74 56 40 22 16
72 70 68 71 71 67 65 66 68 71 74 78 79 75 73 72 76 77 79 80 81 82 81 75 69 68 74 76 86 100 92 76 43
75 70 70 72 74 75 74 72 73 73 78 83 84 84 84 82 80 80 82 83 87 88 87 82 75 69 71 78 83 97 98 98 89
82 74 72 73 73 72 79 81 79 77 80 87 81 85 91 92 85 84 82 82 85 89 89 86 78 72 72 75 82 89 91 100 95
73 71 72 75 80 80 81 83 83 84 84 90 93 95 81 78 79 78 78 76 75 76 76 81 81 77 74 76 83 96 99 100 97
71 75 77 81 86 86 87 89 91 92 92 93 98 100 85 82 78 74 74 76 80 79 76 75 78 78 74 73 81 89 94 95 99
79 83 87 89 88 82 81 87 92 96 93 88 83 87 92 100 97 93 90 92 91 92 90 88 90 86 81 77 78 89 100 99 98
77 77 77 76 75 76 73 78 90 94 100 100 95 86 94 100 100 100 90 92 96 91 87 87 86 88 92 84 87 92 100 100 99

GFSFLT1_850_rhum_087.txt.gz
RH
82 77 73 62 30 19 20 25 32 37 48 65 74 82 85 93 95 88 84 77 56 43 42 50 84 91 88 88 89 86 88 92 93
83 82 78 65 46 25 27 32 39 45 51 59 66 74 83 86 86 80 74 49 37 30 26 24 36 56 93 96 94 89 90 92 94
78 78 74 67 56 35 30 35 40 43 49 56 59 60 62 62 59 57 47 39 36 32 22 16 14 16 28 42 51 66 72 83 89
51 77 69 69 61 46 35 33 38 45 51 55 57 57 58 59 53 52 52 51 41 35 28 20 15 14 14 16 20 24 28 30 29
32 68 69 73 65 57 46 35 37 43 51 55 55 57 58 60 61 63 62 60 52 39 34 26 20 15 14 14 15 16 16 16 16
21 65 75 85 70 56 53 45 34 34 39 48 51 52 55 59 65 68 69 65 61 55 43 35 28 20 15 14 13 14 14 14 15
21 38 69 69 69 64 57 54 46 36 33 41 49 49 51 58 64 68 70 71 64 62 60 50 38 28 21 16 14 14 14 13 12
26 30 48 53 64 64 62 56 53 44 37 32 42 47 51 58 64 68 73 75 69 65 64 62 54 40 30 21 16 14 12 12 12
31 33 34 44 48 50 49 54 54 50 45 33 35 42 48 55 62 68 74 78 78 70 66 64 64 58 43 31 20 15 14 13 12
26 30 31 29 33 38 38 40 45 48 46 35 35 41 47 52 56 64 70 72 76 75 71 69 67 66 63 46 35 21 16 14 14
52 32 32 36 40 39 38 34 34 40 42 41 35 43 52 60 64 67 70 69 70 72 74 74 70 68 69 66 53 40 23 16 14
64 47 50 56 56 45 46 40 40 42 43 47 43 46 54 64 71 72 74 74 73 74 76 78 76 71 70 74 74 64 48 29 18
67 62 58 62 64 58 54 57 55 57 58 61 64 65 68 70 71 71 76 78 79 82 83 83 80 74 72 76 100 99 82 64 47
72 71 70 71 69 67 64 62 62 66 71 75 78 77 75 76 78 78 80 81 83 86 88 88 84 78 73 74 87 95 94 93 84
76 74 73 76 75 73 71 71 72 73 76 76 76 77 79 82 83 83 81 80 83 85 87 90 88 83 76 72 75 84 95 94 95
77 79 76 75 73 73 77 80 80 79 80 84 79 77 79 80 74 75 71 73 77 76 77 81 86 85 81 76 75 79 87 100 100
78 75 78 80 82 82 81 82 83 85 86 91 91 90 80 78 73 67 68 71 72 72 80 78 78 80 79 77 77 81 86 92 99
75 73 76 78 81 78 85 88 89 90 91 94 97 99 88 83 83 79 75 82 85 86 83 89 85 82 84 80 77 82 92 94 97
80 80 77 79 81 79 78 82 81 91 92 94 85 90 96 98 93 88 89 84 89 87 94 91 92 88 88 87 88 84 95 100 100
78 75 76 75 76 74 73 76 77 79 93 98 95 97 100 99 100 99 97 87 80 86 87 84 84 77 91 94 93 89 93 96 95

GFSFLT1_850_rhum_090.txt.gz
RH
72 58 36 17 16 19 24 29 34 48 65 72 75 79 85 97 99 98 88 54 30 30 32 64 88 88 88 88 88 89 91 92 93
74 64 46 24 22 24 30 37 43 50 58 64 74 80 79 98 95 93 87 38 31 22 18 21 44 57 76 95 95 97 98 95 94
80 70 58 39 25 29 35 43 47 53 59 57 60 57 54 87 87 77 48 36 33 26 20 15 13 15 27 41 51 69 67 76 74
88 80 71 55 38 30 37 44 48 52 55 54 54 54 52 84 80 91 89 45 36 33 27 22 17 14 13 14 16 20 22 22 21
95 94 86 67 54 42 33 35 41 46 51 52 51 54 56 87 82 93 61 55 51 43 36 31 24 18 15 13 13 12 12 13 13
72 98 99 88 65 57 48 40 33 41 46 50 48 52 77 88 86 94 64 60 59 57 53 44 33 25 19 15 13 13 13 13 13
48 67 76 91 68 58 55 53 48 37 48 45 50 74 61 66 72 94 67 67 66 64 62 59 50 38 28 20 15 14 12 12 12
21 47 82 81 70 67 66 58 62 52 45 35 53 52 55 75 68 70 66 70 70 68 66 64 63 58 42 30 21 16 14 13 13
38 65 83 88 76 82 83 94 78 56 51 42 37 38 45 52 57 79 66 70 75 71 68 67 65 65 63 48 35 22 16 14 14
43 77 83 89 88 90 73 55 68 63 58 46 33 34 41 47 55 68 64 66 69 74 72 72 70 67 67 68 59 42 27 18 14
33 39 42 43 34 43 49 53 40 43 47 47 37 34 44 54 60 68 73 70 69 72 77 81 78 72 68 67 70 69 49 33 19
61 50 36 42 50 54 45 45 37 37 38 43 47 44 52 59 66 70 74 76 75 77 78 81 84 83 77 75 81 76 77 68 47
65 64 49 57 60 61 52 54 53 53 55 58 62 62 65 68 72 72 74 76 81 81 82 84 86 87 84 85 96 94 87 86 88
68 70 69 66 64 67 65 60 61 64 66 69 73 74 76 77 79 81 82 80 79 82 85 87 89 88 84 81 83 90 89 88 91
75 74 75 75 73 71 70 71 70 70 70 72 72 74 74 77 78 79 72 69 72 77 79 83 84 87 87 83 77 80 95 92 96
80 78 78 75 74 73 75 78 78 76 76 81 80 80 76 77 79 74 72 69 67 68 73 78 81 84 83 83 79 77 80 95 100
79 79 79 81 80 79 80 79 81 80 82 88 97 93 82 87 83 74 71 75 74 77 80 81 82 82 81 79 78 78 79 87 99
77 80 81 82 83 82 83 86 85 89 88 91 97 96 87 82 83 81 84 78 85 86 81 88 86 87 84 83 84 81 79 83 88
81 80 82 81 82 81 81 83 82 90 88 88 90 96 95 91 94 89 86 79 84 89 81 89 88 85 87 83 85 89 87 85 86
74 74 76 79 81 79 81 79 81 80 84 89 91 93 88 92 99 98 87 84 86 89 86 90 85 82 80 74 82 88 90 88 93

GFSFLT1_850_rhum_093.txt.gz
RH
46 21 16 17 21 25 28 34 47 61 65 71 77 79 96 94 89 90 44 28 25 25 35 72 81 78 81 88 90 91 93 89 85
56 36 20 22 26 30 34 40 51 56 60 69 77 76 89 87 88 82 36 29 21 17 14 16 20 32 43 74 82 85 91 81 78
66 49 26 26 29 34 39 43 48 52 53 54 54 53 79 85 91 71 39 31 29 24 19 15 13 13 16 19 30 43 45 39 31
77 60 42 27 31 34 40 42 47 48 48 48 48 47 71 89 92 90 52 42 37 33 28 24 18 15 13 12 13 14 14 14 14
84 70 58 45 34 32 36 38 42 43 44 44 48 53 83 91 93 78 54 51 51 48 43 34 26 21 16 14 13 13 13 13 13
95 90 82 65 50 42 34 30 35 40 43 44 45 64 88 87 91 90 59 57 56 56 55 51 40 30 24 18 14 14 12 11 11
96 80 81 84 61 52 47 41 36 34 61 43 47 83 80 86 88 81 57 59 60 60 58 57 56 50 34 26 19 15 13 12 12
87 90 91 97 72 57 52 52 51 71 71 77 80 77 79 79 86 72 57 58 60 63 62 60 59 61 57 41 30 21 16 13 13
76 93 95 96 96 99 94 97 95 69 56 70 65 71 74 78 81 82 59 58 61 68 65 66 63 62 64 64 54 38 26 18 14
74 80 92 95 96 96 96 93 92 95 92 77 48 47 60 73 69 80 64 60 62 67 79 73 70 67 62 63 68 66 48 32 20
82 86 89 90 92 91 91 89 86 86 88 85 73 51 53 48 61 68 78 67 68 68 72 81 81 80 76 68 63 67 72 65 45
75 81 86 84 87 83 86 87 66 76 75 74 76 67 67 74 71 71 76 86 70 74 75 77 85 90 87 83 80 75 74 76 77
71 72 72 78 84 74 84 82 85 77 82 81 82 67 64 69 83 88 77 76 78 78 79 82 84 85 90 92 94 87 85 82 80
79 82 84 75 77 71 72 76 82 88 84 78 76 79 76 84 83 74 82 89 76 79 92 84 87 88 88 86 86 88 96 93 94
82 93 96 91 78 68 73 77 75 66 83 87 68 70 74 79 76 88 90 90 82 69 78 81 77 82 86 87 85 86 88 99 96
98 96 98 98 90 86 89 82 75 74 72 77 75 77 76 76 84 90 91 88 84 73 74 80 81 92 86 84 81 80 77 85 99
85 86 87 96 98 88 91 84 78 77 84 81 95 91 85 86 83 87 83 81 80 79 79 86 86 85 91 87 77 77 77 76 86
84 82 81 83 84 83 84 84 82 83 86 85 90 96 88 81 81 81 81 84 85 79 85 89 89 88 89 87 85 85 84 80 79
71 70 75 80 80 80 82 84 85 86 90 97 88 92 97 93 82 82 84 84 85 83 88 90 88 90 87 85 81 79 77 83 85
68 69 65 66 82 78 83 86 86 88 88 95 98 89 93 93 87 78 77 90 82 85 88 89 89 87 88 84 79 73 77 83 87

GFSFLT1_850_rhum_096.txt.gz
RH
15 15 15 18 22 26 44 50 56 62 69 74 70 77 84 89 54 28 22 18 16 20 30 47 63 67 73 76 79 82 78 73 69
17 16 20 26 30 33 44 49 52 59 63 66 70 89 88 75 37 29 26 23 19 16 14 13 14 18 27 42 52 44 47 37 26
24 20 23 28 32 34 40 42 44 48 50 52 56 75 79 74 66 39 31 29 28 25 21 17 14 13 13 13 14 15 15 14 12
42 25 26 29 32 36 40 41 40 40 42 45 48 68 66 85 77 50 44 42 40 36 31 25 21 17 14 13 12 12 12 12 12
58 46 33 30 32 34 37 39 39 39 42 45 48 71 87 92 80 59 51 48 48 47 45 39 30 25 20 16 14 13 12 11 11
74 71 57 40 32 29 32 36 38 40 41 40 47 67 86 86 84 70 55 53 50 49 49 50 47 39 28 23 18 15 13 12 13
77 57 55 50 46 39 36 33 31 37 43 46 52 72 81 78 74 65 53 54 53 50 51 51 54 54 48 34 27 20 16 14 13
99 68 62 49 41 45 46 45 45 45 66 62 62 78 82 81 81 67 60 53 52 53 54 55 55 56 58 57 46 34 25 18 15
77 74 58 49 53 52 50 78 74 58 48 53 56 64 75 68 78 72 68 57 56 55 59 60 62 59 57 59 63 60 44 29 20
69 82 78 68 76 72 74 93 93 72 70 61 47 46 51 65 64 59 64 64 63 62 60 66 72 73 70 64 60 64 67 56 39
75 81 88 90 94 94 95 86 73 80 76 78 74 52 44 49 56 62 66 68 68 68 69 70 76 80 81 79 76 70 68 72 73
79 84 88 86 87 80 75 82 76 61 70 66 68 74 60 66 63 66 69 69 68 71 75 78 80 85 86 85 81 81 77 77 76
62 72 81 70 79 67 69 61 53 51 59 62 67 70 62 61 67 81 79 75 72 75 77 79 84 84 88 91 95 88 84 84 85
73 68 72 69 71 64 63 61 61 68 69 71 69 70 67 67 71 76 80 81 84 77 72 75 83 83 84 86 87 91 97 98 96
85 88 87 84 75 65 60 64 66 64 71 70 69 64 65 68 68 74 85 92 90 79 72 74 80 80 82 85 86 85 87 99 96
88 81 94 99 89 78 75 75 72 66 68 72 69 69 71 72 76 77 84 88 89 87 78 80 85 87 81 84 84 82 85 88 96
97 88 93 100 98 94 89 92 79 75 74 74 81 85 77 80 83 86 91 90 89 85 83 81 86 86 86 85 86 88 84 78 83
81 82 80 84 94 92 84 86 84 78 82 83 86 92 88 85 84 89 88 82 82 87 87 86 90 90 88 88 83 85 85 85 83
82 81 79 78 81 78 80 81 77 78 78 94 89 95 94 92 90 87 85 81 84 88 93 91 89 87 92 89 85 79 78 78 77
62 68 68 63 58 60 67 78 83 76 89 94 92 93 98 100 100 99 96 91 89 95 92 93 92 86 86 83 84 85 81 75 71

GFSFLT1_850_rhum_099.txt.gz
RH
13 15 17 20 27 44 51 59 69 82 73 74 82 74 50 33 25 20 18 16 14 15 16 16 24 36 50 54 57 47 35 24 16
14 18 22 24 47 49 53 57 63 62 61 70 81 69 53 34 29 26 25 23 21 18 16 14 14 15 15 16 18 18 14 12 12
19 23 27 29 37 43 46 48 53 55 51 60 64 61 56 48 40 36 33 32 30 27 22 19 16 14 13 13 12 12 12 12 12
23 26 30 30 35 38 38 38 38 39 42 57 60 66 57 54 48 46 44 45 44 40 33 27 23 19 16 14 14 13 12 12 12
24 27 28 31 34 34 35 35 38 40 42 50 61 72 65 60 59 50 48 47 48 48 48 44 37 29 24 19 16 14 12 13 13
40 30 26 28 32 32 33 34 36 38 41 50 66 79 72 68 56 54 49 50 49 48 49 50 51 47 38 30 24 18 15 14 14
53 42 34 30 28 28 28 30 32 36 41 50 65 74 72 72 59 55 49 49 50 50 51 50 50 52 54 51 40 29 22 17 15
52 38 36 37 37 38 37 35 35 39 44 52 63 73 79 72 69 60 61 53 53 53 54 55 54 53 52 55 59 53 38 26 18
61 50 37 34 36 40 44 47 54 46 40 44 50 59 68 65 66 59 59 58 58 59 60 63 66 68 66 60 57 60 61 46 31
48 48 53 50 46 44 53 58 58 66 57 57 48 42 46 55 52 53 57 62 64 65 65 66 69 74 77 77 73 64 63 67 64
48 54 65 66 66 72 76 69 74 73 60 65 58 50 39 42 47 53 59 64 68 70 73 72 73 77 80 82 81 77 74 72 72
70 72 82 79 81 83 86 89 69 62 57 60 55 53 52 50 58 60 61 66 71 74 76 80 80 84 82 81 84 85 83 80 80
78 76 84 90 89 93 86 75 69 68 61 55 53 56 58 57 58 64 66 72 76 78 76 74 77 82 85 88 94 92 88 86 87
59 69 73 72 71 65 68 63 64 58 59 58 60 59 59 61 65 70 76 81 82 83 79 73 75 80 80 81 82 89 98 100 100
69 66 68 69 72 71 66 66 68 61 66 73 68 64 62 62 63 72 81 86 94 93 89 78 76 81 80 81 82 85 93 100 99
83 74 69 77 79 69 69 70 74 76 73 72 69 67 66 66 70 82 86 90 90 93 91 84 82 80 85 80 76 85 80 80 90
85 84 83 91 95 91 84 78 82 82 79 77 80 77 70 70 77 88 90 92 88 89 90 85 86 85 88 82 82 82 74 76 85
89 94 85 94 100 98 89 86 87 85 84 81 86 88 84 82 81 88 95 92 88 87 85 88 86 88 93 91 86 78 76 75 80
93 93 86 88 91 85 85 83 90 92 85 86 90 91 96 92 88 93 94 91 87 87 89 93 93 92 89 89 89 87 82 75 78
85 80 89 86 84 80 76 76 76 74 74 72 78 85 87 100 99 96 90 86 89 94 96 94 93 94 88 83 78 76 76 78 82

GFSFLT1_850_rhum_102.txt.gz
RH
16 14 17 24 35 42 62 76 81 82 64 57 50 36 27 23 21 19 18 17 16 15 14 16 23 31 30 25 18 15 12 12 12
13 18 28 41 46 49 60 70 64 62 56 49 40 35 32 28 28 28 26 25 22 20 17 16 15 14 14 13 12 12 12 12 13
18 21 32 41 44 45 51 56 53 54 55 41 45 57 47 42 40 38 37 36 32 28 24 21 18 16 15 14 13 12 12 13 14
24 27 31 34 36 37 43 46 44 42 50 51 47 55 56 49 47 45 43 44 44 42 38 32 27 23 19 17 14 13 14 14 14
27 30 32 33 33 33 36 38 37 40 45 57 59 58 57 56 52 48 47 46 45 45 47 48 44 37 29 24 19 16 14 14 15
28 30 31 33 34 33 34 36 37 40 46 58 69 62 56 55 52 47 47 47 47 46 47 47 49 51 48 40 30 23 18 15 15
25 28 29 31 31 33 34 35 36 36 43 57 66 62 58 58 60 53 50 49 49 50 50 51 52 52 54 56 52 40 28 20 17
29 26 26 27 27 26 28 29 33 37 39 47 57 59 57 54 54 53 54 53 55 55 56 59 62 64 60 57 58 58 46 29 22
41 37 32 31 31 33 34 36 40 42 46 41 49 50 52 50 48 50 55 57 59 61 62 64 67 73 75 73 65 62 63 53 39
40 49 45 42 40 41 44 51 61 58 49 48 47 49 47 48 46 48 55 61 64 66 68 69 72 75 79 81 77 73 69 70 68
41 40 48 49 53 53 64 70 67 67 65 71 61 54 46 41 45 51 58 64 68 71 72 71 74 79 81 84 85 83 78 75 73
38 45 56 66 69 73 71 69 70 72 70 54 54 59 58 50 54 59 64 69 74 76 77 76 83 84 83 80 85 90 89 86 83
52 58 60 76 72 75 77 77 72 70 66 58 57 54 58 59 56 58 65 72 80 83 81 75 75 74 77 84 91 97 95 95 92
55 62 70 79 80 83 82 83 74 68 65 58 58 59 62 64 66 66 70 76 83 87 89 84 75 75 76 77 83 88 99 98 98
59 68 77 81 86 84 77 67 68 67 65 70 65 64 62 63 64 68 78 85 89 92 95 92 85 79 80 79 68 74 88 98 98
78 70 67 71 71 72 69 71 71 70 70 75 74 67 65 66 68 77 80 92 94 90 92 90 90 84 82 82 82 78 79 89 89
84 84 81 74 77 80 84 80 73 73 80 85 83 82 70 66 72 80 89 93 93 89 89 86 91 88 86 87 88 83 74 73 73
87 95 94 90 79 64 70 73 73 80 83 88 95 91 87 83 81 77 91 95 89 94 94 85 88 82 86 89 88 87 83 81 79
96 96 90 87 92 76 77 79 74 80 79 93 97 96 93 96 91 90 82 97 96 96 93 91 92 92 89 87 87 83 85 80 82
99 95 96 100 96 96 97 89 85 84 80 79 87 86 88 83 90 97 91 94 94 89 81 89 88 94 95 89 86 79 79 73 70

GFSFLT1_850_rhum_105.txt.gz
RH
20 12 16 22 30 58 67 58 55 55 42 32 26 24 23 22 22 21 20 19 18 17 16 16 17 16 14 13 13 13 15 16 23
13 17 25 33 45 59 59 47 50 50 40 32 30 29 30 30 30 30 29 28 25 23 20 18 16 15 15 14 13 14 16 20 34
20 28 36 41 49 54 48 45 43 46 40 43 38 40 40 40 40 39 39 38 37 34 31 27 23 20 17 15 14 15 16 18 23
25 32 36 40 45 46 43 44 42 41 41 46 45 46 43 43 43 41 41 42 42 43 44 40 35 29 24 20 17 16 16 20 21
27 29 31 34 37 41 43 41 40 46 44 46 50 47 47 44 42 42 43 43 43 44 44 46 47 45 39 31 24 19 16 17 17
28 30 30 31 34 36 36 37 41 45 48 47 53 50 48 46 44 43 45 47 47 48 49 49 50 51 52 49 38 28 20 18 17
29 32 33 34 35 37 39 39 40 45 53 60 61 63 59 56 52 52 49 52 53 54 55 57 59 58 56 57 55 44 29 22 18
29 30 32 35 36 37 39 38 41 43 50 57 59 60 63 59 57 55 55 57 58 59 61 63 68 70 69 66 61 59 49 35 25
26 27 29 30 31 32 33 35 38 44 49 54 57 59 60 58 57 56 58 62 63 64 64 67 70 74 76 75 72 67 65 60 46
33 32 33 34 34 35 37 38 44 48 48 48 50 52 55 54 54 55 59 64 68 69 69 71 74 77 80 82 81 79 73 70 68
41 42 44 46 46 48 48 56 65 68 60 56 56 54 48 46 48 55 61 69 74 73 72 71 79 80 80 82 87 88 84 79 75
46 49 49 57 58 59 60 67 66 66 64 63 69 67 62 52 48 57 63 69 77 81 81 79 83 74 78 83 84 92 94 91 86
41 40 52 67 69 71 73 76 74 72 66 67 63 65 66 65 57 58 64 72 78 82 86 83 77 74 75 82 93 93 99 99 95
50 54 61 72 77 79 78 79 80 78 79 78 71 61 60 64 68 68 68 73 81 88 91 89 84 76 77 81 80 82 92 92 97
53 60 67 72 77 82 85 83 82 81 76 72 66 63 64 70 71 73 78 82 87 89 94 90 88 84 82 77 79 85 85 86 92
65 58 63 71 76 82 84 82 80 74 72 74 70 69 69 67 71 76 79 85 91 90 86 81 83 89 88 88 83 84 83 86 88
80 80 80 78 77 79 79 74 67 66 74 79 80 78 71 72 71 75 79 87 92 93 88 88 92 78 85 81 81 89 87 78 76
79 81 86 86 91 86 85 86 90 71 81 86 93 93 87 83 82 82 80 84 82 80 82 95 89 86 84 86 90 88 85 83 86
85 87 88 92 81 83 82 90 94 82 84 88 88 85 89 87 91 88 85 86 83 89 90 99 91 79 81 85 88 89 87 80 79
90 96 86 78 78 83 84 80 100 96 93 92 97 94 98 98 98 92 86 90 92 81 92 97 89 85 85 92 87 87 85 81 79

GFSFLT1_850_rhum_108.txt.gz
RH
21 11 13 22 46 78 60 46 34 32 26 24 24 24 24 24 25 25 24 22 21 19 18 17 16 16 15 14 17 19 24 31 33
12 14 20 36 52 47 42 37 34 31 29 28 29 31 32 34 34 35 34 32 30 27 25 23 21 19 17 15 16 17 22 31 54
14 21 30 45 45 36 36 36 37 36 36 37 36 39 40 39 39 40 40 41 41 40 36 33 29 25 22 19 18 18 23 34 46
22 30 37 41 37 34 36 39 41 44 47 46 44 42 43 43 42 42 42 42 43 44 44 44 41 37 31 25 22 19 19 20 25
32 36 38 41 40 40 40 41 44 44 46 49 50 49 45 43 44 45 46 46 46 47 48 48 49 48 46 39 30 23 20 19 26
30 34 37 42 46 46 45 45 49 48 49 52 52 50 50 49 50 49 51 51 51 52 54 54 55 54 53 52 45 33 24 21 20
30 33 36 38 41 42 42 42 45 50 54 55 55 56 55 55 56 54 54 56 57 58 60 63 64 63 63 60 57 49 34 27 23
30 32 35 37 39 38 39 42 43 47 51 53 55 58 57 56 56 56 58 59 61 63 65 67 69 70 71 70 67 62 56 44 36
30 32 34 36 37 38 40 42 43 46 50 53 55 55 57 56 55 55 57 61 64 65 67 70 72 73 74 76 75 72 67 65 56
31 33 34 35 34 33 34 36 42 50 56 57 55 54 52 52 54 56 58 62 66 68 71 73 73 75 76 80 82 81 76 72 70
28 29 30 32 35 38 41 42 50 58 57 55 55 57 54 52 51 55 59 65 69 72 75 79 79 74 74 83 86 88 86 82 78
38 38 39 45 46 48 51 57 65 70 67 64 65 67 68 68 54 54 63 72 78 82 84 83 80 82 82 89 86 85 85 89 89
45 48 51 59 58 61 60 66 71 73 71 68 66 61 63 65 66 60 63 69 78 85 89 90 82 77 75 79 87 94 99 98 94
45 40 44 60 69 72 74 78 77 77 74 70 71 69 64 63 63 69 72 70 75 84 91 93 88 79 74 75 78 84 90 88 86
51 53 58 64 69 73 73 75 80 78 72 71 69 64 63 63 68 72 74 78 81 86 89 84 83 79 84 84 83 84 87 87 87
58 56 58 64 63 66 75 83 79 77 79 78 70 62 71 67 63 66 72 77 82 88 88 85 82 82 76 84 74 79 82 87 83
75 74 69 68 72 76 81 85 84 85 84 89 88 74 77 74 72 72 73 75 80 87 87 83 81 89 80 79 78 83 81 83 86
80 86 84 84 86 86 88 87 87 87 88 94 99 89 88 86 78 74 77 77 75 77 78 81 80 96 89 83 71 79 79 82 83
83 87 91 88 83 88 98 98 95 81 79 96 91 93 94 98 92 86 86 85 85 89 77 86 96 94 90 76 75 83 82 80 82
86 97 100 100 90 86 90 86 80 87 85 78 69 87 95 100 100 100 91 88 89 84 83 89 96 96 89 79 77 80 76 74 78

GFSFLT1_850_rhum_111.txt.gz
RH
20 12 22 69 64 55 38 28 25 23 23 24 24 25 26 27 28 27 26 24 22 22 21 20 20 18 18 18 27 31 40 57 42
12 15 30 56 51 40 34 30 27 27 27 30 32 34 36 37 37 37 36 35 33 31 30 28 26 23 21 19 22 25 48 49 50
12 21 44 50 42 37 34 31 32 32 34 38 39 41 42 41 41 41 42 43 41 40 39 38 35 31 27 23 23 25 35 39 76
18 30 44 48 41 37 37 36 41 42 41 42 42 42 42 42 42 42 43 44 45 45 44 45 44 42 38 31 26 22 22 27 70
26 38 41 42 38 37 40 40 45 47 49 50 49 44 42 43 44 45 47 48 48 49 49 50 51 51 49 43 36 28 24 24 29
32 39 38 40 40 41 42 43 45 46 50 49 46 46 44 46 46 48 51 52 53 53 54 55 56 57 56 54 49 40 30 24 23
33 38 40 44 47 44 42 44 45 51 52 54 52 50 48 48 49 50 52 54 55 56 57 59 61 64 64 62 59 53 44 35 28
38 40 43 39 43 41 40 42 45 48 51 54 56 56 54 52 52 55 55 59 60 60 61 62 63 66 69 70 68 64 60 54 45
39 40 41 38 39 40 39 40 41 44 48 51 54 55 56 55 56 58 61 63 65 67 68 69 70 70 71 76 75 71 68 65 62
37 37 38 37 37 39 40 41 41 44 50 53 52 53 52 53 53 55 58 64 67 69 72 74 77 71 68 75 79 79 77 73 70
34 35 36 36 37 38 37 39 43 50 54 55 54 54 52 50 49 51 56 63 69 72 77 83 81 74 70 74 80 82 82 82 80
33 33 33 32 32 35 39 42 49 64 71 68 65 68 67 66 61 51 56 63 69 76 82 85 82 78 78 79 78 82 81 85 86
31 32 34 39 43 46 50 54 65 71 72 71 70 65 62 64 66 64 61 66 71 77 84 88 85 78 73 76 82 82 90 95 86
46 48 56 55 59 60 62 64 71 75 76 75 71 70 68 61 58 62 66 68 68 73 82 88 89 83 76 77 80 80 79 81 87
54 57 63 63 71 72 72 75 80 82 79 76 73 73 70 68 64 65 71 73 73 76 84 87 79 72 76 81 80 70 81 81 82
61 59 59 66 70 72 83 89 89 88 84 81 73 73 72 70 76 72 71 74 72 75 82 84 85 86 85 89 82 77 72 76 80
60 61 66 70 74 78 85 91 93 89 84 74 71 79 77 78 76 74 74 75 78 81 82 83 82 83 90 91 80 81 77 75 76
77 74 72 73 78 82 86 90 94 87 76 81 88 91 83 82 84 80 76 73 76 85 85 78 82 82 87 91 89 80 83 82 81
84 87 87 88 91 98 94 94 92 78 70 78 86 95 87 93 94 87 92 91 89 90 90 88 84 88 98 94 90 80 78 76 74
90 79 95 92 93 76 87 90 82 85 83 85 88 89 92 93 99 99 100 98 94 92 89 79 88 80 83 97 88 86 87 80 78

GFSFLT1_850_rhum_114.txt.gz
RH
31 82 83 78 60 48 31 27 24 23 24 24 25 26 27 36 58 66 38 34 25 25 25 24 22 21 23 24 29 62 48 66 71
30 85 78 64 51 34 27 25 24 26 28 30 32 35 36 49 54 80 59 36 35 35 34 31 29 26 25 30 42 46 46 65 84
18 78 66 55 38 32 29 28 28 31 34 37 38 39 38 45 46 48 42 41 41 41 40 39 37 34 30 28 26 28 43 71 70
24 72 61 46 35 34 32 33 36 38 38 39 39 39 38 42 47 74 47 43 44 45 46 46 45 43 39 33 28 28 28 29 58
52 68 56 44 37 37 39 40 43 43 42 41 39 39 41 49 57 69 46 47 49 50 51 51 51 51 48 44 37 31 26 26 33
71 88 54 46 42 42 43 45 45 46 45 43 42 42 63 75 83 62 50 52 54 56 56 57 58 58 57 54 48 40 34 30 28
98 87 67 51 48 45 43 43 46 53 54 50 48 74 72 77 79 52 51 54 57 59 60 61 62 63 63 62 58 53 48 41 37
96 99 95 56 54 51 51 50 52 55 74 59 84 83 82 80 69 54 53 56 58 61 63 63 64 63 64 66 65 64 60 55 49
97 98 98 66 84 54 45 56 49 51 57 70 73 81 83 83 75 55 56 59 62 64 66 66 65 62 67 70 71 70 68 65 62
95 93 94 92 66 46 43 47 48 54 59 55 59 56 66 58 61 88 58 61 64 68 70 71 68 63 64 71 73 73 74 74 71
92 86 79 61 46 45 46 48 46 46 65 62 52 51 50 51 52 64 64 61 66 72 76 82 79 74 67 72 77 80 77 79 80
47 44 45 44 42 42 42 42 54 78 66 80 62 63 65 58 56 49 65 65 67 72 78 86 81 71 67 68 73 78 78 83 81
41 41 40 41 41 37 38 44 65 90 80 85 76 70 62 65 66 64 57 61 69 71 80 83 84 77 69 71 69 69 75 80 77
41 42 40 37 39 46 53 58 79 79 81 79 72 69 69 68 63 60 64 65 65 68 77 85 87 85 78 78 80 75 68 77 78
38 40 43 50 62 64 66 70 80 87 85 79 71 68 62 56 56 57 61 68 72 73 76 88 84 83 88 84 82 80 72 72 73
57 65 74 77 76 78 84 88 88 86 79 74 82 64 64 69 73 75 75 77 73 73 82 92 88 86 87 88 92 86 81 74 81
68 70 72 72 76 84 85 88 87 86 71 76 87 86 90 75 71 70 80 90 80 74 79 84 89 93 88 83 95 88 86 78 82
66 71 74 72 78 81 81 85 89 82 74 78 88 92 84 92 82 80 78 77 82 79 88 88 85 83 84 88 98 94 92 83 84
70 72 77 77 80 84 84 84 81 74 72 86 81 84 94 98 91 91 85 85 95 92 96 91 92 89 98 97 99 97 94 90 86
80 81 79 81 84 87 80 71 60 70 82 84 86 89 88 89 95 98 100 94 82 88 88 88 79 78 79 84 86 92 97 91 87

GFSFLT1_850_rhum_117.txt.gz
RH
73 80 80 77 66 36 42 41 32 27 27 26 26 31 60 81 80 50 41 30 29 29 29 28 25 25 25 47 42 60 76 74 73
69 80 70 68 58 31 26 25 25 25 27 30 31 39 71 82 87 73 39 37 37 36 35 34 32 33 31 33 28 41 44 80 89
77 82 73 55 36 27 25 25 27 30 33 36 37 40 74 84 84 47 40 40 41 41 41 41 38 37 32 29 31 42 37 58 66
76 79 66 47 32 27 27 28 32 36 37 37 38 39 68 85 86 68 41 42 44 45 46 47 46 43 39 36 32 30 33 46 62
84 70 74 44 34 30 30 34 37 39 38 39 40 46 74 86 84 47 45 46 48 49 51 52 52 51 48 44 37 32 33 36 32
91 86 64 43 38 38 40 41 40 42 41 40 43 64 79 83 83 46 46 48 50 50 52 53 54 55 55 53 48 41 35 33 32
99 88 61 48 46 48 49 50 49 47 45 44 55 78 78 85 84 48 48 50 53 55 56 56 56 57 59 59 58 54 48 42 39
97 99 73 58 55 51 53 52 57 88 85 71 79 75 78 83 84 51 50 53 58 60 61 59 54 55 62 63 64 62 60 56 52
98 95 80 64 65 58 55 69 87 86 82 80 80 79 81 81 89 52 54 56 59 62 64 64 60 58 63 66 67 68 67 65 63
98 99 98 95 91 88 87 82 85 82 78 77 76 79 82 84 86 78 54 56 59 63 67 69 67 63 63 67 70 69 72 74 73
92 98 99 94 92 89 82 79 80 80 78 76 75 69 70 77 83 87 62 55 58 63 68 77 76 72 63 62 68 75 77 78 80
92 93 92 92 92 83 78 76 75 76 81 82 76 73 73 65 68 78 84 64 59 65 70 85 82 71 59 64 64 64 71 75 75
95 93 93 93 85 82 78 73 74 88 96 94 92 83 77 83 82 71 69 78 78 68 71 77 81 79 68 76 74 69 66 68 71
93 90 88 86 81 78 75 74 87 95 95 82 83 73 67 61 78 82 82 80 77 91 92 82 81 83 79 78 77 79 78 80 74
88 85 84 78 74 74 70 91 92 98 96 71 67 63 67 78 75 83 86 85 82 79 94 94 84 85 83 84 83 81 81 77 81
71 79 86 80 73 89 76 77 71 75 73 74 76 82 92 85 75 72 72 85 73 78 94 99 99 96 88 86 88 90 88 82 77
60 84 91 91 97 98 86 83 78 80 73 81 87 85 87 86 73 72 73 82 83 79 78 86 86 89 95 100 99 98 98 88 84
61 97 98 90 79 92 78 74 77 82 95 94 93 83 82 89 91 80 79 87 82 81 79 83 92 94 87 84 89 99 100 98 88
78 85 63 62 59 72 74 76 75 85 94 89 84 82 79 91 90 92 88 85 86 86 89 87 88 86 84 86 90 84 91 88 92
54 61 67 71 76 80 82 82 83 86 90 79 87 81 84 89 97 98 94 92 86 78 80 85 82 76 76 76 75 72 75 85 88

GFSFLT1_850_rhum_120.txt.gz
RH
66 69 64 61 70 73 51 36 31 29 28 27 35 56 68 56 44 34 32 33 33 32 31 32 33 39 39 38 61 87 85 84 95
59 82 79 53 39 50 34 28 27 27 27 32 54 77 84 74 45 37 37 37 36 36 37 37 37 34 34 53 51 87 86 90 97
81 84 73 54 32 28 26 25 26 29 32 39 55 78 82 60 41 38 36 38 39 40 40 40 40 38 36 37 38 64 79 84 94
79 76 60 45 27 25 24 27 31 35 38 40 51 75 80 62 40 38 38 40 42 44 45 45 45 43 41 37 33 57 47 64 60
81 78 52 34 27 25 28 32 36 37 39 42 52 68 73 71 50 42 43 45 48 49 50 50 51 50 48 43 40 39 35 35 54
87 75 52 34 29 28 33 37 38 39 40 46 67 79 85 72 44 43 46 49 51 52 51 51 53 56 54 52 48 44 41 40 41
86 80 60 38 34 35 39 42 44 42 42 54 72 76 81 74 50 46 47 49 52 54 52 49 49 56 57 58 57 55 51 48 45
86 87 86 43 44 44 48 49 54 54 53 74 77 78 77 69 50 47 48 50 53 57 58 53 49 54 58 60 61 62 61 59 56
86 85 56 46 49 52 51 58 78 87 84 83 75 78 80 82 61 50 50 51 54 58 61 60 56 54 58 62 64 65 68 68 66
86 82 61 56 54 54 56 68 85 83 79 76 78 81 80 84 68 69 53 53 56 60 64 67 66 59 59 60 66 69 71 72 73
93 88 69 66 81 67 74 84 76 80 78 74 73 61 82 77 81 71 66 54 57 61 65 73 76 69 57 57 64 70 70 75 77
96 89 72 82 90 88 80 77 77 71 78 78 74 66 66 64 63 73 73 74 65 63 68 75 82 75 62 63 61 61 62 65 72
93 95 86 90 92 86 76 73 70 77 69 82 84 82 79 78 81 78 75 76 75 75 75 75 78 81 74 77 77 72 75 73 74
80 87 92 94 85 81 70 61 59 78 79 83 86 78 74 73 81 85 83 82 79 78 88 90 82 82 87 86 82 86 91 87 88
94 93 92 87 75 67 57 50 66 77 78 73 70 73 81 85 81 78 83 82 82 77 78 80 80 78 80 80 83 80 79 82 81
93 89 79 73 57 49 44 50 63 79 88 83 78 84 82 75 76 76 80 85 86 78 83 87 77 83 78 82 85 89 88 87 85
78 78 75 62 54 48 53 60 65 75 81 80 92 86 90 90 85 78 74 76 83 84 86 90 90 88 89 90 87 82 89 96 96
80 77 61 56 57 54 61 74 77 80 97 97 85 82 85 94 90 87 82 81 84 83 81 83 86 86 89 90 84 88 93 94 96
80 71 67 49 64 66 74 83 86 89 99 99 88 80 77 76 95 93 85 83 79 81 76 80 91 93 92 84 77 85 82 90 91
70 74 54 53 69 73 80 75 73 84 91 93 82 81 82 80 97 95 92 80 90 87 76 73 81 87 82 84 82 83 88 91 92